GFSSW_850_dewp_075.txt.gz
Dewpoint
-7 -15 -20 -20 -26 -27 -26 -23 -20 -24 -26 -24 -24 -24 -26 -23 -19 -12 -9 -7 -4 -5 -5 -11 -15 -10 -8 -9 -5 -6 -4 -3 -4 -6 -7 -10 -3 2 6 7 8 7 6 8 10
-1 -2 -12 -17 -21 -25 -27 -28 -26 -26 -28 -26 -25 -24 -27 -25 -26 -19 -11 -6 -6 -2 -2 -7 -8 -10 -7 -4 -4 -6 -4 -5 -6 -8 -7 -7 -3 2 5 6 7 8 6 10 11
4 2 1 -5 -13 -22 -24 -25 -28 -28 -29 -27 -24 -25 -27 -25 -24 -15 -5 -5 -5 -2 -2 -4 -5 -1 -3 -3 -4 -6 -4 -6 -6 -7 -7 -8 -2 2 6 7 5 5 5 10 11
3 2 3 1 -4 -17 -21 -24 -27 -27 -29 -29 -25 -25 -27 -23 -17 -2 -2 -3 -4 -4 -3 -4 -8 -4 -4 -5 -6 -6 -7 -8 -8 -9 -8 -9 -4 5 5 2 4 4 6 9 11
-3 2 -1 2 1 -10 -16 -20 -24 -25 -26 -28 -26 -24 -21 -8 -23 -25 -7 -4 -7 -4 -5 -5 -9 -4 -3 -5 -6 -7 -7 -8 -7 -6 -5 -5 4 4 5 5 6 7 9 10 10
-6 -3 1 -0 1 -3 -17 -20 -19 -22 -23 -24 -24 -21 -2 3 -20 -17 -16 -19 -17 -10 -4 -5 -9 -8 -4 -4 -6 -7 -7 -5 -5 -5 -5 0 5 6 3 4 4 9 10 11 11
-6 -7 -4 -0 -1 -2 -7 -17 -21 -20 -19 -19 -19 -7 2 -22 -23 -24 -27 -5 -5 -2 -3 -3 -5 -6 -3 -3 -4 -5 -4 -4 -5 -5 -6 -1 2 6 2 4 5 10 11 11 10
-2 -0 -3 -6 -6 -3 -8 -17 -17 -21 -17 -15 -18 -2 1 -31 -31 -31 -29 -25 -4 -1 -1 -1 -1 -4 -3 -3 -4 -4 -4 -2 -5 -6 -5 -6 -2 -4 2 5 7 11 11 11 10
-10 -3 1 -2 -5 -10 -14 -17 -17 -16 -18 -14 -10 0 -3 -16 -14 -6 -3 -7 -15 -1 -1 -2 -1 -1 -2 -3 -3 -3 -3 -2 -3 -5 -4 -5 -3 -2 4 5 7 10 11 11 10
-5 -8 -6 -0 -1 -11 -19 -16 -18 -16 -16 -13 2 1 -14 -19 -9 -1 -2 -2 -8 -5 -3 -2 -2 -1 -2 -2 1 -2 -0 -1 -1 -3 -4 -3 -3 2 6 6 8 10 10 10 10
0 -0 -3 -1 1 -11 -16 -11 -9 1 3 -6 0 -5 -15 -4 -2 -2 -0 -1 -4 -2 -1 -2 -0 1 -0 -1 -3 -2 -1 -1 -2 -4 -2 -2 -1 2 4 8 8 10 10 10 10
0 1 0 -5 -1 -9 -10 -2 -0 0 2 -2 -1 1 -3 -6 3 -9 -3 -1 -2 -1 -2 -1 1 -1 -3 -2 -2 -1 -1 -1 -2 -3 -2 -2 -2 1 4 5 6 7 9 10 10
0 0 1 0 -5 -10 -6 2 2 3 3 1 -9 -9 -4 -4 2 -6 -5 -2 -2 -1 -1 -0 -0 -1 -1 -1 -1 -1 -1 -1 -1 -2 -3 -2 -1 3 3 5 5 5 7 9 9
0 1 1 0 -3 -9 0 2 1 3 0 -6 -0 -5 -6 -6 1 -7 -4 -6 -3 -2 -2 -1 -3 -1 -1 -0 -2 -1 -3 -2 -1 -0 1 -2 2 -1 3 5 5 5 6 7 8
1 1 1 0 -3 -2 2 2 0 2 -12 -14 -5 -5 -3 -3 -5 -2 -5 -3 -2 -2 -3 -1 -1 -1 -0 0 -2 -1 -2 -1 -0 1 0 0 2 0 1 4 4 4 4 5 6
0 1 1 1 -0 -2 -4 -2 1 3 -5 -10 -8 -1 0 -1 -4 -2 -1 -4 -5 -4 -4 -3 -3 -1 -2 -2 -2 -2 -0 -0 1 1 4 1 2 2 2 1 1 0 3 4 4
1 1 2 1 -1 -0 -2 -1 4 4 -5 -9 -4 -5 -3 -1 -1 -6 -0 -2 -1 -1 0 -3 -3 -4 -3 -0 -1 -1 -0 3 4 5 5 2 5 3 -1 -1 -1 0 2 2 4
1 1 2 1 -1 -0 1 2 4 -2 -4 -6 -5 -6 -5 -3 -4 -5 -2 -1 -3 -3 -1 0 1 -4 -4 -2 -1 -0 1 4 5 5 4 5 7 3 0 -1 -1 -2 -1 0 4
1 2 2 2 -0 1 0 2 -0 -1 -3 -2 -2 -3 -6 -1 -1 -3 -3 -2 -5 -3 -1 0 -0 -5 -5 -4 -3 -1 2 -1 6 8 8 5 4 2 -1 -2 -1 -1 3 4 5
2 2 2 2 1 1 1 -2 -1 -3 -2 -4 -1 -2 -2 -1 1 1 0 -3 -3 -7 -3 -1 -0 -3 -4 -5 -4 -2 0 4 6 9 8 6 7 5 2 -1 -4 -1 3 4 5
2 2 2 2 2 1 0 -1 -2 -3 -3 -1 -2 -2 -1 -1 -0 2 1 -1 -3 -3 -6 -2 0 -1 -3 -2 -1 -0 2 4 5 5 6 8 5 2 2 -0 -3 -2 1 3 5
2 2 2 2 1 0 1 -3 -3 -2 -2 -2 -2 -1 -0 -1 -0 2 2 0 -3 2 -0 -2 1 2 1 -2 -3 -2 -0 5 6 8 7 6 6 -0 0 -1 -4 -5 -0 2 1
2 0 2 2 2 1 -0 -0 -3 -2 -2 -2 -0 -1 -3 -3 -1 1 1 0 -1 3 -0 -0 2 3 2 -1 -1 0 -1 -1 4 6 8 7 7 -1 -1 -1 -1 -4 -3 1 1
0 1 1 2 1 -0 1 1 -1 -4 -2 -1 -1 -2 0 -1 -2 -0 1 1 3 3 4 3 2 1 2 1 0 1 1 0 2 6 6 6 3 2 1 -1 -2 -2 -4 -1 0
-0 0 1 1 1 0 -1 -1 0 -1 -3 -4 -2 -1 -0 1 -0 -0 -1 1 1 2 4 2 2 1 -0 -2 2 2 2 2 2 1 3 3 4 2 1 -0 -2 -3 -4 -5 -1
-1 0 1 0 1 1 0 1 -0 -1 -2 -1 -0 -1 -1 -1 -0 -1 0 2 4 5 6 4 3 2 1 0 0 2 2 2 2 2 1 2 3 0 -0 -1 -1 -2 -4 -4 -5
-0 0 1 1 2 2 0 -0 0 -1 -2 -4 -2 -1 -0 -1 -2 -2 -3 2 5 5 6 6 4 4 5 3 4 5 3 1 2 3 2 2 2 -0 -0 -1 -1 -2 -3 -3 -5

GFSSW_850_dewp_078.txt.gz
Dewpoint
-3 -4 -9 -18 -21 -22 -26 -27 -29 -29 -28 -27 -29 -30 -31 -31 -32 -30 -22 -14 -10 -5 -5 -8 -11 -8 -5 -7 -5 -5 -4 -3 -4 -5 -6 -9 -7 -2 2 5 6 9 9 8 7
3 2 0 -2 -12 -14 -21 -26 -25 -26 -28 -28 -29 -29 -32 -32 -33 -31 -21 -16 -11 -3 -5 -7 -12 -8 -8 -7 -5 -5 -4 -4 -6 -7 -7 -7 -7 -7 3 5 5 7 8 10 10
-0 -0 -0 -0 -1 -7 -12 -18 -25 -23 -25 -26 -29 -32 -32 -33 -28 -15 -4 -7 -6 -2 -1 -4 -4 -7 -3 -3 -5 -6 -5 -6 -6 -7 -7 -7 -7 -3 4 5 3 4 7 11 10
-5 -3 -4 -1 -4 -3 -12 -18 -19 -20 -18 -24 -26 -30 -32 -30 -20 -3 -3 -3 -1 -1 -1 -3 -4 -2 -3 -3 -4 -4 -6 -6 -7 -8 -8 -8 -6 3 4 -1 1 5 5 11 10
-6 -7 -7 -5 -6 -6 -11 -17 -20 -20 -16 -15 -20 -25 -28 -13 -28 -27 -9 -3 -4 -3 -3 -3 -6 -5 -3 -4 -6 -7 -7 -7 -8 -7 -6 -5 -1 2 4 -1 2 6 8 10 10
-4 -5 -6 -9 -7 -9 -14 -16 -16 -18 -17 -11 -12 -18 -11 -0 -21 -19 -15 -16 -5 -6 -7 -4 -6 -8 -4 -4 -5 -6 -7 -6 -5 -5 -5 -3 0 5 -2 -0 5 8 9 10 10
-12 -8 -4 -9 -9 -14 -17 -16 -16 -16 -15 -8 -3 -8 -5 -28 -25 -24 -26 -21 -5 -5 -8 -6 -5 -5 -4 -3 -4 -4 -3 -5 -5 -6 -5 -4 0 5 -3 3 7 8 10 10 10
-12 -13 -11 -8 -6 -16 -19 -19 -19 -16 -12 -13 -4 -4 -1 -30 -31 -31 -30 -31 -27 -3 -3 -3 -3 -3 -4 -4 -3 -4 -4 -3 -7 -6 -6 -4 -2 -4 -4 4 7 8 11 10 11
-5 -6 -8 -9 -7 -16 -17 -20 -20 -16 -16 -14 -5 -6 -7 -19 -20 -7 -1 -2 -2 -19 -3 -1 -3 -1 -2 -2 -1 -3 -1 -4 -5 -6 -5 -5 -2 -4 1 5 6 8 9 11 11
-0 -0 -1 -3 -8 -14 -13 -19 -16 -7 -6 -10 1 -1 -19 -23 -14 -2 -0 -1 -2 -11 -4 -2 -1 -0 -0 -1 2 -1 -1 -2 -2 -5 -4 -3 -3 -4 -0 5 6 9 10 10 10
0 -0 1 0 -2 -7 -10 -14 -6 -4 1 -2 1 -4 -11 -7 -4 -1 0 -1 -2 -2 -1 -1 -0 1 -0 -0 -3 -3 -2 -1 -2 -4 -3 -2 -2 -3 0 6 7 8 10 10 10
-0 -0 1 1 0 -4 -5 -2 2 2 1 -2 -6 -1 -12 -6 1 -7 -5 -2 -3 -1 -2 -0 1 -1 -2 -1 -1 -2 -1 -1 -3 -4 -3 -2 -2 -4 2 4 6 7 9 10 10
-1 -1 0 1 0 -1 -7 2 1 2 2 1 -2 -1 -4 -6 -3 -7 -9 -2 -1 -1 -1 -1 -1 -2 -1 -1 0 0 -0 -1 -1 -2 -3 -2 -1 -2 -0 3 4 5 6 8 10
-1 -1 1 1 0 -2 -7 2 0 3 2 -4 -2 -3 -6 -5 -2 -8 -6 -8 -2 -1 -1 -1 -4 -2 -1 -0 -1 0 -2 -2 -1 -0 1 -2 2 -1 -2 2 4 4 4 5 8
-0 -1 1 1 -0 -2 2 2 2 3 -12 -13 -4 -4 -2 -7 -5 -1 -5 -5 -8 -2 -2 -0 -1 -1 0 -0 -2 -0 -3 -2 -1 0 0 0 2 0 0 1 1 2 3 4 5
-1 -1 1 2 1 -1 -1 -2 -2 1 -8 -12 -5 0 1 -1 -2 -0 -1 -4 -4 -3 -3 -3 -4 -3 -3 -2 -2 -2 -1 -1 1 1 4 2 2 2 0 0 -1 -0 -0 1 3
-2 0 1 1 1 -0 -0 -4 3 3 -6 -8 -4 -5 -5 -1 -0 -3 0 -1 -2 -0 -0 -2 -3 -5 -2 -2 -1 -1 0 4 4 6 6 1 3 1 -1 -2 -1 -1 -2 -1 1
-2 1 2 2 2 1 -1 1 3 -1 -2 -6 -4 -3 -6 -4 -3 -2 -1 -0 -3 -2 -5 -3 -1 -3 -4 -0 1 1 1 5 6 6 4 4 5 3 0 -1 -1 -1 -2 -2 1
-1 1 2 2 2 1 -0 2 -1 -1 -3 -3 -3 -3 -5 -2 -1 -0 -2 -1 -3 -3 -2 -0 -1 -5 -5 -4 -3 -0 2 -0 5 7 7 5 3 -0 -2 -1 -3 -2 -2 -1 1
0 1 2 2 2 2 1 -3 -2 -3 -2 -3 -2 -1 -0 -2 0 2 1 -2 -3 -4 -3 -1 0 -3 -4 -5 -4 -1 -0 4 5 8 9 5 5 3 0 -2 -2 -3 0 0 2
1 1 1 1 2 1 1 -2 -5 -6 -5 -1 -0 -0 -1 -1 -1 2 1 -1 -2 1 -0 -3 -0 0 -3 -2 -2 -0 -1 3 3 4 5 6 4 2 1 1 1 -2 -3 -0 0
1 1 1 0 2 0 1 -1 -5 -3 -3 -3 -2 -1 -0 -0 -1 1 3 1 -0 2 4 -1 -1 1 -0 -2 -3 -3 -0 2 5 6 5 4 3 -1 0 -0 -1 -3 -5 -2 -3
1 1 2 -0 2 1 0 -1 -3 -3 -2 -2 -1 -1 -2 -2 -1 -0 0 -1 1 3 5 5 4 1 1 -2 -2 -0 -1 1 4 5 7 6 4 -0 -1 -1 -2 -2 -3 -5 -1
-0 0 1 2 1 1 0 -0 1 -3 -4 -1 -1 -2 -1 0 -2 -0 -1 -3 -2 0 3 4 6 3 1 -1 -2 1 -0 -0 2 5 5 6 3 1 0 -1 -1 -2 -2 -4 -3
-0 -0 1 1 2 0 -1 -1 0 -1 -4 -3 -1 -0 -0 1 0 -0 -2 -3 -0 1 5 5 6 3 2 -1 -3 1 1 1 2 2 3 2 4 2 -0 -1 -2 -2 -2 -4 -3
-1 -0 1 0 -0 2 0 0 -0 -1 -2 -2 -2 -3 -2 0 -1 -2 -2 -1 0 3 5 5 6 4 3 1 -0 -0 0 1 2 2 2 1 1 -1 -0 -1 -1 -1 -2 -3 -4
-1 0 1 0 0 2 1 -0 0 -2 -2 -4 -3 -2 -1 -1 -3 -3 -3 -3 -2 -1 4 6 5 6 4 2 2 4 2 1 1 2 2 4 1 -0 -0 -1 -1 -1 -2 -3 -3

GFSSW_850_dewp_081.txt.gz
Dewpoint
3 3 3 -0 -9 -17 -21 -23 -25 -26 -26 -28 -30 -32 -33 -34 -34 -33 -32 -28 -20 -9 -4 -3 -3 -6 -5 -4 -4 -4 -2 -2 -3 -4 -6 -8 -7 -5 -3 3 5 7 6 6 7
-1 -1 -4 -7 -5 -7 -17 -21 -21 -21 -23 -25 -28 -29 -31 -34 -34 -32 -12 -16 -23 -12 -4 -4 -7 -5 -4 -7 -5 -5 -3 -4 -5 -6 -6 -6 -7 -7 -0 4 5 7 6 7 7
-10 -10 -9 -7 -7 -5 -7 -17 -17 -20 -19 -20 -23 -27 -29 -33 -30 -20 -3 -5 -8 -3 -4 -7 -10 -7 -6 -4 -5 -5 -4 -5 -6 -6 -7 -7 -7 -5 1 -1 -1 2 -0 4 6
-8 -11 -13 -14 -14 -14 -16 -14 -14 -15 -15 -18 -18 -23 -25 -30 -20 -5 -3 -3 -2 -0 -2 -5 -4 -4 -2 -3 -4 -4 -5 -6 -6 -6 -6 -7 -6 -1 2 -3 -4 -1 2 4 6
-6 -11 -11 -12 -14 -16 -17 -17 -16 -15 -15 -12 -16 -15 -20 -15 -31 -31 -23 -4 -1 -0 -0 -3 -3 -3 -1 -3 -5 -4 -5 -6 -6 -7 -7 -6 -5 -4 0 -6 -2 1 4 5 7
-8 -10 -12 -12 -15 -16 -17 -18 -18 -17 -17 -15 -10 -8 -7 -4 -24 -23 -17 -16 -3 -4 -2 -3 -5 -6 -5 -3 -5 -5 -6 -7 -6 -5 -5 -5 -3 3 -4 -3 0 4 5 8 8
-9 -12 -12 -11 -12 -18 -17 -18 -20 -19 -18 -16 -11 -4 -2 -24 -28 -25 -22 -19 -17 -6 -8 -8 -5 -6 -5 -3 -4 -4 -3 -4 -5 -5 -6 -5 -1 2 -3 -0 5 8 8 9 10
-5 -9 -7 -6 -9 -15 -18 -20 -20 -19 -21 -20 -14 -4 -2 -28 -30 -30 -29 -29 -28 -27 -9 -6 -5 -5 -5 -4 -3 -3 -3 -2 -6 -6 -6 -4 -5 -3 -4 3 8 10 10 9 10
-2 -1 -1 -1 -2 -4 -10 -20 -20 -19 -18 -11 -6 -5 -7 -17 -20 -6 -4 -5 -2 -7 -20 -2 -2 -1 -2 -3 -2 -2 -4 -3 -5 -6 -5 -3 -3 -4 -2 3 6 9 9 9 10
-0 1 0 -0 -0 -0 -4 -14 -17 -8 -3 -6 1 -0 -14 -17 -12 -6 0 -0 -1 -3 -8 -4 -1 0 0 -1 -1 -1 -1 -2 -3 -5 -4 -4 -4 -5 -2 4 5 7 9 10 10
-2 0 0 -0 -0 0 -1 -13 -6 -3 -2 -5 -4 -5 -9 -11 -5 -2 -1 -1 -2 -6 -2 0 1 2 1 -0 -3 -2 -2 -3 -4 -4 -3 -4 -4 -5 -4 4 5 7 8 10 10
-2 -1 -1 -0 -0 0 -0 -3 1 0 1 -1 -7 -4 -7 -6 -3 -4 0 -3 -1 -1 -1 0 2 -0 -2 -0 -0 -2 -2 -2 -3 -4 -3 -4 -3 -4 -3 -1 4 5 8 9 10
-1 -2 -1 -0 -0 -0 -1 -1 0 0 2 0 -0 0 -2 -6 -2 -5 -3 -1 -2 -1 -1 -1 -0 -1 -1 -0 1 1 1 0 -1 -3 -4 -3 -2 -2 -3 1 4 6 6 8 9
-2 -1 -1 -0 -0 -1 -4 -4 2 0 1 -3 -2 -4 -4 -4 -3 -9 -11 -9 -1 -1 -1 -1 -4 -2 -1 -1 -1 0 -1 -1 -0 -0 -1 -2 1 -1 -3 -2 1 3 6 7 9
-2 -1 -1 1 1 -0 -1 2 2 2 -8 -12 -2 -4 -4 -5 -7 -1 -5 -8 -9 -2 -1 -0 -1 -2 -1 -1 -1 -1 -2 -1 -0 -0 -0 -3 -0 -0 -1 -1 -2 -2 4 6 5
-2 -2 -0 0 1 0 0 -1 -2 2 -8 -10 -2 0 -3 -3 -4 -0 -1 -4 -6 -7 -4 -3 -3 -3 -4 -3 -2 -2 -2 -1 0 0 2 -1 1 1 -0 -1 -1 -2 -1 3 5
-2 -1 0 1 1 0 -0 -3 2 2 -6 -5 -5 -4 -4 -1 -1 -2 -0 -2 -1 -3 -4 -5 -4 -4 -3 -2 -1 -1 1 2 5 5 1 1 2 1 -1 -2 -2 -2 -2 -1 2
-2 -2 -1 1 1 1 -0 -0 3 -3 -1 -5 -4 -3 -5 -4 -2 -1 -0 -0 -3 -3 -5 -3 -3 -3 -3 -2 -1 0 1 1 1 4 1 2 4 0 -0 -1 -1 -1 -1 -1 0
-2 -2 -1 -0 2 2 0 1 -2 -2 -3 -2 -4 -3 -3 -3 -1 0 -1 -1 -2 -3 -4 -3 -4 -6 -4 -2 -2 1 2 -1 3 7 7 4 3 0 -1 -1 -2 -2 -2 -1 0
-1 -0 -0 -2 1 2 1 -1 -3 -3 -2 -2 -3 -2 -0 -1 0 2 1 -1 -1 0 -3 -1 -0 -3 -4 -5 -4 -1 -0 3 2 3 4 4 4 1 -1 -2 -1 0 -1 -1 0
-0 0 -1 -3 1 1 1 -0 -4 -6 -6 -1 -0 -1 -0 -0 -1 2 1 -1 1 2 0 -1 -0 1 -2 -2 -2 -2 0 2 1 3 3 4 3 2 1 -1 1 1 -1 -2 1
-0 0 -1 -1 1 -0 2 -1 -4 -3 -4 -5 -2 -1 -1 -1 -1 -1 1 -1 2 2 5 4 3 1 -1 -2 -4 -3 -2 -0 4 6 5 3 2 -1 0 0 0 -1 -3 -5 -2
-1 -1 0 0 1 1 2 1 -3 -3 -3 -1 -2 -2 -2 -2 -3 -2 -0 -1 0 1 2 1 5 4 -0 -4 -5 -2 -1 -2 -1 3 4 7 3 -0 -0 -0 -1 -1 -2 -2 -4
-0 0 0 2 1 0 -0 2 2 -3 -4 -2 -1 -2 -1 0 -1 -1 -1 -3 -4 -5 2 1 4 7 5 3 1 -1 -0 0 1 4 2 3 2 1 0 0 -0 -1 -3 -3 -3
-0 -1 -0 1 1 1 0 -1 0 -0 -2 -4 -3 -1 -1 0 -0 -1 -2 -3 -4 -4 4 3 1 2 5 3 4 3 -1 -1 2 2 3 2 2 1 1 -0 -1 -2 -2 -2 -3
-1 0 -0 -1 -0 2 0 -0 -1 -0 -2 -2 -2 -2 -2 0 -0 -2 -3 -3 -2 -2 -2 1 5 5 5 3 4 4 1 -2 0 -0 1 2 2 -1 -1 -1 -1 -2 -1 -2 -2
-1 -0 0 -0 1 2 2 -0 -0 -2 -2 -3 -3 -2 0 -0 -2 -2 -3 -3 -3 -2 -1 -0 5 6 4 4 5 5 2 -1 -1 -0 0 2 0 -0 -0 0 -0 -1 -2 -1 -1

GFSSW_850_dewp_084.txt.gz
Dewpoint
-2 -7 -6 -14 -19 -24 -25 -24 -23 -23 -23 -22 -24 -28 -30 -32 -34 -33 -26 -16 -27 -19 -12 -6 -4 -3 -4 -5 -4 -5 -6 -7 -9 -9 -11 -9 -8 -7 -1 -1 1 3 3 8 4
-6 -9 -11 -13 -16 -17 -16 -15 -21 -23 -24 -24 -24 -25 -26 -31 -32 -30 -18 -9 -17 -19 -4 -2 -2 -3 -6 -6 -6 -6 -7 -8 -11 -11 -9 -8 -8 -8 -7 -7 -4 1 6 8 6
-3 -5 -9 -11 -15 -17 -16 -14 -16 -17 -20 -21 -24 -26 -25 -26 -20 -16 -9 -4 -4 -17 -2 -1 -3 -4 -6 -7 -7 -8 -7 -9 -9 -9 -8 -9 -8 -8 -6 -6 -6 -4 -2 8 9
-6 -10 -11 -11 -14 -15 -16 -16 -15 -17 -17 -18 -19 -22 -25 -25 -15 -8 -4 -2 -6 -5 -3 -3 -5 -6 -7 -7 -8 -7 -8 -10 -10 -10 -9 -9 -8 -8 -6 -5 -6 -1 1 6 8
-10 -12 -14 -17 -18 -19 -18 -16 -17 -18 -18 -17 -16 -16 -17 -5 -17 -20 -29 -20 -1 -2 -3 -3 -4 -6 -6 -8 -9 -5 -10 -9 -8 -8 -7 -7 -7 -7 -8 -7 -6 2 5 6 8
-11 -13 -13 -16 -18 -19 -19 -20 -19 -18 -17 -17 -16 -14 1 -5 -20 -24 -23 -20 -6 0 0 -3 -3 -3 -5 -6 -6 -7 -6 -7 -7 -7 -7 -6 -8 -8 -7 -7 -2 3 4 6 8
-1 -4 -10 -10 -12 -14 -15 -19 -20 -21 -19 -18 -18 -11 1 -10 -24 -27 -24 -18 -9 -3 -3 -2 -3 -5 -5 -5 -5 -5 -5 -6 -6 -7 -6 -8 -7 -8 -7 -1 0 3 5 6 8
-1 -2 -2 -2 -3 -3 -6 -15 -18 -19 -21 -20 -15 -1 -0 -27 -24 -27 -26 -27 -24 -19 -16 -4 -4 -4 -5 -4 -4 -4 -4 -3 -7 -8 -8 -7 -8 -12 -8 -1 -1 2 5 7 8
0 -2 0 1 -0 -1 -3 -7 -12 -17 -19 -12 -4 2 -6 -12 -16 -9 -20 -15 -15 -22 -22 -9 -4 -6 -6 -4 -4 -5 -3 -4 -4 -7 -8 -6 -9 -9 -2 -2 -1 1 5 7 7
-1 -3 -1 0 -0 -1 -2 -5 -12 -10 -1 -0 2 1 -6 -14 -4 0 1 2 1 0 -6 -10 -4 -4 -3 -4 -3 -4 -3 -3 -3 -7 -7 -8 -7 -9 -7 -3 -2 1 5 6 6
-1 -2 -1 -1 -1 -2 -2 -1 -3 -2 1 -2 -5 -5 -8 -3 -12 -3 1 3 -1 -2 -8 -7 -3 -3 -5 -4 -4 -5 -3 -3 -5 -6 -5 -6 -6 -9 -10 -5 -2 1 3 5 6
-1 -1 -1 -2 -2 -2 -1 -1 1 1 1 -1 -3 -3 -4 -3 -3 -6 1 -0 -1 -3 -7 -4 -2 -6 -6 -4 -2 -2 -2 -3 -5 -6 -4 -5 -6 -9 -10 -6 -4 -2 2 4 7
-1 -1 -1 -1 -2 -1 -0 -1 2 2 1 -2 -1 -2 -1 -3 -5 -6 -1 -1 -2 -2 -3 -2 -5 -7 -4 -1 -1 -1 -2 -3 -3 -5 -4 -3 -3 -6 -11 -6 -2 -0 0 3 5
-2 -1 -2 -0 -1 1 1 -0 1 1 2 -6 -3 -2 -1 -3 -4 -7 -9 -4 -3 -3 -3 -2 -4 -4 -3 -1 -3 -1 -5 -4 -3 -2 -2 -4 -2 -7 -6 -4 -4 -2 2 2 4
-2 -2 -1 0 1 1 1 0 -0 2 -5 -12 -4 -3 -3 -5 -8 -1 -5 -10 -7 -2 -1 -2 -2 -3 -1 -2 -4 -3 -5 -6 -3 -1 -1 -1 -1 -6 -9 -5 -5 -6 -2 2 4
-4 -2 -1 -1 0 0 1 0 -0 3 -5 -11 -3 -2 -4 -4 -5 -1 -3 -6 -9 -12 -11 -4 -4 -3 -3 -5 -4 -3 -2 -1 -1 -1 2 -0 -2 -4 -5 -3 -4 -5 -5 -1 2
-5 -3 -2 -0 1 1 0 1 2 -1 -10 -8 -3 -5 -6 -2 -1 -2 -1 -1 -3 -5 -8 -14 -8 -6 -4 -4 -5 -2 -2 1 3 4 2 -4 -3 -3 -4 -4 -4 -5 -5 -2 2
-5 -4 -1 -2 -0 1 0 1 2 -7 -5 -7 -5 -6 -7 -4 -2 -2 -1 -1 -3 -4 -7 -8 -11 -12 -11 -6 -5 -1 -1 1 3 3 2 -2 -0 -3 -4 -5 -5 -4 -3 -1 1
-4 -3 -1 -2 -1 1 1 3 -6 -6 -5 -4 -6 -6 -5 -3 -2 -1 -2 -2 -1 -4 -3 -6 -7 -10 -9 -10 -10 -3 0 -3 1 -0 4 -0 -1 -2 -3 -3 -3 -4 -4 -3 -1
-2 -1 -1 -1 -2 0 2 1 -5 -4 -3 -4 -5 -4 -4 -4 -5 -3 -0 -1 -0 -0 1 -3 -2 -7 -7 -6 -7 -7 -6 1 0 3 3 -1 0 -0 -2 -3 -4 -3 -2 -1 -2
-3 -1 -2 -3 -1 1 2 1 -3 -6 -5 -3 -3 -3 -3 -2 -4 -4 -3 -1 -1 -0 0 -0 -2 -2 -2 -3 -3 -3 -1 -2 -2 -0 2 1 -1 -3 -2 -3 -3 -2 -2 -1 -0
-1 0 -2 -1 1 0 2 -2 -2 -5 -6 -6 -4 -2 -3 -3 -4 -4 -4 -2 -2 -2 1 2 3 0 -2 -4 -4 -4 -3 -2 2 -1 1 2 1 -2 -2 -1 -1 -2 -1 -2 2
-1 -1 -1 0 1 0 1 2 -3 -5 -4 -5 -5 -5 -4 -3 -3 -4 -4 -3 -3 -3 -1 -1 5 4 -0 -3 -5 -3 -3 -3 -2 -1 2 6 2 -4 -5 -4 -3 -1 -2 -2 -1
-2 0 -2 0 0 0 -2 -0 3 -1 -5 -5 -3 -4 -2 -2 -3 -3 -3 -5 -2 -4 -4 -3 -2 4 5 5 3 3 1 -2 -1 3 1 1 -1 -2 -3 -3 -4 -2 -2 -3 -2
-1 -1 -4 0 0 0 -0 -1 -0 1 -4 -4 -3 -3 -2 -1 -2 -1 -2 -3 -5 -5 -2 -1 -1 -3 -3 -2 -1 0 2 2 1 -1 2 -0 -1 -4 -4 -3 -4 -3 -2 -2 -3
-1 -0 -3 -4 -5 -1 1 -1 -1 -4 -2 -2 -3 -4 -3 -1 -2 -1 -2 -2 -2 -3 -1 -2 4 3 3 0 -1 2 1 1 1 -0 -2 -2 -1 -4 -3 -4 -3 -3 -3 -2 -2
-1 -1 0 -2 -2 1 1 0 -1 -2 -3 -4 -4 -3 -3 -3 -3 -1 -1 -2 -2 -2 -1 0 1 3 2 1 2 3 2 2 -0 -1 -1 1 -2 -3 -3 -4 -3 -4 -3 -2 -1

GFSSW_850_dewp_087.txt.gz
Dewpoint
-3 -5 -10 -13 -15 -16 -19 -19 -20 -23 -24 -25 -27 -28 -28 -28 -29 -29 -8 -8 -6 -16 -19 -2 1 -2 -4 -6 -6 -6 -5 -5 -7 -8 -10 -13 -10 -9 -8 -7 -7 -3 -3 4 8
1 -3 -7 -13 -14 -14 -15 -16 -17 -18 -19 -20 -23 -27 -29 -28 -27 -13 -11 -12 -12 -18 -16 -3 -1 -2 -5 -6 -7 -6 -5 -6 -9 -10 -11 -13 -10 -10 -10 -9 -8 -6 -3 2 8
-4 -8 -13 -17 -16 -17 -16 -16 -17 -18 -19 -19 -20 -24 -26 -28 -7 -9 -9 -6 -4 -3 -10 -3 -3 -4 -4 -7 -7 -7 -5 -7 -9 -10 -12 -12 -12 -11 -9 -9 -9 -8 -7 -4 6
-3 -9 -14 -16 -17 -18 -19 -20 -19 -18 -19 -20 -21 -20 -22 -22 -9 -5 -10 -26 -10 -6 -1 -3 -3 -4 -4 -6 -7 -6 -8 -9 -9 -11 -11 -11 -12 -12 -10 -9 -9 -8 -6 -2 -1
-3 -9 -13 -16 -17 -18 -19 -19 -20 -20 -21 -20 -21 -22 -21 -4 -7 -13 -16 -17 -19 -4 -2 -4 -4 -5 -4 -7 -8 -7 -8 -9 -11 -10 -10 -10 -10 -10 -10 -10 -10 -8 -8 -2 1
1 -3 -7 -15 -14 -12 -15 -17 -18 -18 -21 -20 -20 -20 -3 -3 -13 -15 -12 -8 -7 -1 -2 -4 -4 -5 -6 -6 -6 -7 -9 -8 -8 -9 -8 -8 -8 -9 -10 -11 -9 -8 -7 -3 2
1 1 -3 -8 -8 -7 -7 -12 -13 -15 -17 -21 -20 -18 -2 -8 -11 -11 -6 -10 -6 -7 -4 -2 -3 -4 -4 -4 -6 -7 -5 -6 -7 -7 -7 -7 -6 -6 -8 -10 -11 -6 -4 1 2
0 0 -4 -7 -4 -3 -5 -8 -11 -14 -16 -19 -20 -2 -2 -10 -9 -8 -8 -10 -7 -4 -5 -4 -3 -3 -3 -5 -4 -4 -4 -2 -5 -6 -7 -7 -3 -7 -11 -11 -11 -4 -3 1 4
-0 0 -3 -6 -3 -4 -7 -11 -13 -14 -14 -16 -7 1 -5 -7 -7 -10 -9 -11 -13 -11 -10 -10 -8 -4 -4 -3 -2 -3 -1 -2 -4 -6 -7 -7 -5 -8 -10 -7 -6 -4 -3 2 4
-0 -0 -2 -5 -3 -5 -8 -12 -6 -3 2 2 1 1 -2 -13 -10 -3 1 -10 -12 -8 -10 -11 -15 -9 -9 -6 -1 -2 -2 -4 -4 -5 -6 -6 -6 -7 -10 -7 -6 -5 -3 1 4
-1 -1 -1 -2 -1 -6 -6 0 -2 1 2 -2 -4 -3 -8 -8 -7 -10 1 2 1 -0 -6 -11 -15 -7 -7 -8 -8 -5 -5 -5 -5 -6 -5 -4 -4 -6 -9 -11 -10 -5 -4 -1 2
-2 -1 -1 -1 -2 -6 -2 -0 -1 1 0 -3 -4 -5 -6 -7 -7 -8 -5 -2 -1 -1 -5 -10 -9 -10 -7 -8 -6 -4 -4 -3 -5 -5 -5 -5 -4 -6 -7 -8 -11 -9 -5 -2 2
-2 -2 -1 -1 -4 -3 1 -1 -0 2 -0 -5 -5 -5 -5 -5 -6 -8 -9 -2 -3 -2 -6 -4 -6 -9 -7 -6 -2 -4 -2 -2 -3 -4 -5 -4 -3 -4 -6 -6 -8 -11 -7 -5 -0
-3 -3 -2 -2 -3 -0 0 0 1 2 -1 -10 -5 -5 -4 -4 -5 -7 -10 -6 -4 -4 -7 -6 -7 -5 -5 -5 -4 -1 -3 -4 -4 -3 -1 -5 -0 -3 -5 -8 -9 -10 -5 -5 -3
-3 -3 -2 -1 2 1 2 1 2 3 -9 -10 -7 -4 -3 -5 -7 -5 -4 -10 -6 -5 -5 -5 -5 -4 -3 -4 -6 -2 -5 -4 -3 -3 -3 -3 -2 -3 -4 -5 -7 -6 -5 -4 -2
-3 -2 -3 -2 0 0 1 3 2 2 -7 -13 -6 -4 -4 -4 -7 -2 -4 -9 -12 -10 -6 -4 -6 -5 -5 -5 -3 -3 -4 -3 -3 -3 2 -1 -0 -1 -3 -6 -5 -6 -7 -6 -3
-3 -4 -3 0 0 2 1 3 1 -3 -13 -13 -5 -4 -6 -4 -3 -3 -3 -5 -5 -7 -5 -7 -8 -6 -5 -3 -3 -3 -1 2 4 3 3 -2 -1 -1 -5 -6 -6 -6 -6 -6 -4
-4 -4 -2 -2 0 2 2 2 2 -9 -9 -8 -7 -6 -7 -6 -3 -2 -1 -2 -3 -6 -6 -9 -9 -15 -9 -6 -4 -2 -1 2 4 4 3 -2 0 -3 -6 -7 -8 -6 -6 -4 -2
-3 -3 -3 -1 1 1 2 3 -3 -7 -10 -7 -7 -6 -8 -5 -3 -2 -1 -3 -3 -4 -3 -6 -8 -13 -17 -13 -9 -5 -1 -3 -0 0 3 2 -1 -3 -5 -5 -5 -5 -6 -5 -4
-2 -2 -3 -2 1 1 2 1 -5 -7 -5 -6 -4 -6 -6 -5 -4 -3 -2 -2 -1 -1 -2 -3 -1 -8 -11 -10 -13 -10 -14 -3 -2 2 3 -1 -2 -3 -3 -3 -4 -5 -4 -4 -5
-1 -1 -5 -1 1 1 2 1 -5 -5 -6 -4 -5 -5 -5 -4 -5 -6 -5 -1 -2 -1 0 -1 -1 -3 -6 -6 -5 -7 -7 -6 -3 -1 0 1 -2 -4 -4 -4 -4 -3 -3 -2 -2
-1 -1 -4 -1 1 -1 0 -2 -1 -3 -7 -7 -5 -4 -4 -5 -5 -5 -5 -4 -4 -3 -0 1 3 1 -3 -6 -7 -7 -5 -6 -1 -0 -2 -1 -1 -5 -4 -4 -3 -3 -2 -1 0
-2 -3 -2 0 0 -1 -4 -2 -0 -2 -4 -6 -7 -7 -7 -5 -4 -5 -5 -5 -4 -5 -2 -3 3 3 -0 -3 -5 -3 -3 -4 -3 -2 0 5 0 -5 -6 -2 -3 -4 -3 -2 -1
-1 0 -4 -0 -1 0 -2 -4 -3 -1 -0 -6 -5 -7 -6 -4 -5 -2 -4 -5 -4 -5 -5 -4 -4 -1 2 4 1 -0 -3 -3 -2 2 0 -0 -2 -4 -3 -4 -4 -4 -3 -3 -3
-2 -1 -5 1 -1 -3 -4 -2 -1 -3 -1 -4 -2 -3 -5 -4 -3 -2 -2 -3 -4 -5 -4 -4 -1 -4 -5 -6 -5 -2 -1 -1 -1 -1 1 -1 -2 -4 -6 -6 -3 -4 -4 -3 -3
-2 -2 -5 -6 -8 -3 -4 -3 -4 -0 1 -1 -2 -4 -5 -4 -4 0 1 0 0 -3 -2 -1 1 -1 -1 -4 -3 -3 -3 -3 -3 -2 -2 -2 -2 -6 -6 -5 -4 -6 -5 -4 -4
-2 -3 -2 -4 -4 -4 -4 -3 -5 -4 -5 -4 -4 -5 -4 -3 -5 -3 -3 -2 -2 -0 -1 0 1 2 2 -4 0 2 -3 -3 -1 0 -0 -0 -3 -5 -5 -4 -3 -4 -4 -4 -3

GFSSW_850_dewp_090.txt.gz
Dewpoint
1 -6 -11 -10 -14 -15 -15 -15 -17 -18 -19 -21 -26 -27 -29 -29 -28 -26 -9 -9 -7 -7 -10 -7 -2 0 -1 -3 -5 -6 -5 -5 -6 -6 -8 -11 -12 -11 -10 -9 -8 -8 -4 2 8
1 -3 -8 -13 -15 -16 -17 -18 -19 -19 -19 -20 -22 -24 -25 -27 -30 -27 -13 -10 -11 -12 -12 -10 -3 -1 -2 -5 -6 -6 -4 -5 -8 -9 -8 -11 -12 -12 -10 -8 -8 -8 -7 -1 5
-3 -5 -13 -13 -16 -17 -18 -18 -20 -22 -22 -22 -24 -24 -24 -24 -16 -4 -6 -10 -7 -5 -4 -9 -5 -2 -3 -5 -6 -7 -5 -6 -8 -8 -8 -10 -11 -12 -11 -9 -10 -9 -9 -7 4
-2 -8 -12 -14 -16 -17 -18 -19 -19 -21 -21 -23 -23 -23 -26 -23 -6 -4 -13 -14 -22 -22 -4 -5 -5 -3 -3 -3 -5 -6 -8 -7 -8 -8 -9 -9 -11 -11 -12 -11 -11 -10 -9 -8 -6
1 0 -4 -8 -10 -15 -13 -15 -19 -19 -19 -20 -22 -23 -23 -4 -6 -12 -11 -13 -15 -15 -1 -2 -4 -4 -3 -4 -4 -5 -7 -8 -8 -8 -9 -11 -10 -10 -10 -10 -10 -10 -10 -9 -7
1 1 1 -3 -7 -9 -10 -11 -14 -15 -14 -17 -18 -21 -3 -3 -19 -12 -15 -11 -8 -3 -1 -2 -5 -5 -4 -5 -4 -5 -7 -8 -8 -8 -9 -9 -9 -8 -8 -8 -9 -10 -10 -10 -9
0 0 0 -2 -11 -10 -10 -11 -13 -12 -13 -16 -15 -16 -0 -14 -15 -11 -10 -8 -10 -8 -6 -3 -4 -4 -4 -3 -4 -5 -3 -5 -6 -8 -7 -7 -5 -6 -7 -8 -8 -8 -10 -8 -7
-0 0 -1 -3 -7 -11 -10 -14 -16 -15 -14 -15 -15 -11 -1 -22 -9 -9 -10 -10 -9 -9 -5 -6 -5 -3 -3 -3 -4 -4 -3 -2 -5 -6 -6 -6 -3 -5 -7 -7 -8 -9 -11 -7 -5
-1 -1 -0 -2 -5 -11 -16 -17 -23 -6 -5 -8 -12 -1 -3 -7 -6 -7 -8 -10 -10 -11 -8 -5 -6 -3 -3 -2 -1 -2 0 -1 -2 -5 -5 -5 -4 -7 -8 -8 -11 -11 -10 -5 -2
-2 -2 -1 -1 -2 -7 -12 -21 -22 -2 1 3 1 1 0 -6 -13 -9 -4 -2 -9 -13 -13 -11 -11 -10 -8 -4 1 -1 -1 -2 -2 -4 -5 -5 -4 -7 -7 -7 -7 -6 -7 -5 -1
-2 -2 -2 -2 -2 -5 -12 -13 -3 -0 3 0 -1 -2 -5 -8 -8 -8 -8 -1 -11 -13 -10 -13 -10 -11 -12 -8 -6 -4 -4 -2 -3 -4 -5 -4 -3 -5 -7 -6 -7 -5 -5 -5 -4
-4 -3 -2 -2 -2 -7 -12 3 -2 -0 -0 -2 -3 -3 -4 -6 -7 -8 -9 -1 -1 -0 -2 -6 -8 -13 -16 -12 -7 -6 -5 -4 -3 -4 -5 -4 -4 -5 -6 -6 -6 -8 -9 -5 -4
-4 -3 -3 -3 -3 -11 -0 1 -2 1 0 -5 -7 -6 -7 -7 -8 -9 -9 -10 -5 -2 -2 -2 -5 -12 -11 -15 -10 -4 -3 -3 -0 -1 -4 -3 -2 -4 -5 -6 -6 -6 -7 -10 -5
-4 -4 -2 -4 -5 1 1 -1 0 2 1 -9 -6 -7 -7 -5 -5 -6 -7 -10 -9 -3 -3 -3 -7 -8 -7 -6 -10 -4 -5 -2 0 2 5 -3 1 -2 -4 -4 -5 -5 -6 -8 -8
-3 -3 -4 -4 -1 2 2 1 0 2 -1 -8 -7 -5 -5 -7 -7 -7 -7 -9 -8 -4 -5 -4 -6 -7 -6 -7 -6 -5 -5 -2 2 3 1 -1 0 -2 -4 -4 -5 -6 -7 -9 -5
-3 -3 -4 -4 -3 -5 -0 -0 1 3 -3 -16 -6 -6 -5 -5 -7 -3 -3 -6 -10 -10 -8 -6 -7 -7 -7 -6 -7 -5 -4 -2 0 1 5 1 -0 -1 -2 -3 -4 -7 -8 -5 -4
-3 -3 -4 -2 -1 1 1 2 2 -0 -16 -16 -9 -8 -5 -5 -5 -8 -2 -4 -7 -7 -7 -9 -7 -7 -5 -3 -5 -4 -1 2 5 6 6 -1 -1 -0 -3 -4 -5 -5 -6 -6 -5
-3 -4 -2 -3 -2 -0 1 3 4 -5 -8 -14 -9 -7 -5 -9 -4 -5 -3 -4 -7 -8 -9 -6 -5 -7 -7 -4 -3 -3 -0 2 4 8 9 4 4 -2 -5 -5 -7 -7 -7 -6 -5
-3 -2 -2 -3 -1 -1 2 2 -2 -5 -7 -8 -9 -8 -7 -9 -6 -3 -2 -3 -5 -6 -3 -4 -6 -12 -13 -11 -6 -3 -0 -3 1 2 5 4 3 0 -3 -6 -5 -6 -6 -5 -3
-2 -2 -1 -4 -2 -0 2 0 -4 -7 -5 -2 -2 -8 -8 -9 -5 -4 -3 -5 0 -3 -2 -3 0 -6 -12 -16 -12 -6 -4 1 1 3 2 -1 -0 1 -0 -3 -4 -4 -4 -5 -5
-3 -2 -4 -4 -1 0 1 -2 -4 -7 -4 -0 -4 1 -1 1 -6 -5 0 4 -2 -2 -2 1 -1 -2 -7 -10 -9 -10 -9 -7 -7 -4 0 3 3 1 3 1 -2 -2 -2 -2 -2
-4 -1 -5 -3 1 -1 0 -4 -6 -6 -5 -0 -1 -3 2 -1 -2 -5 -6 -1 -4 -4 -1 1 3 3 -2 -7 -9 -8 -8 -8 -3 -1 0 1 1 -4 -4 -2 -2 -2 -2 -1 -1
-3 -4 -4 0 0 -2 -5 -6 -6 -5 -4 -3 -0 -8 -6 -6 -4 -7 -6 -4 -4 -5 -2 -3 -0 3 -0 -4 -5 -4 -5 -6 -5 -4 -0 4 2 -5 -1 -2 -2 -2 -3 -1 -1
-1 -1 -5 -0 -2 -2 -3 -5 -6 -8 -3 -1 -1 -4 -7 -8 -7 -5 -5 -6 -4 -4 -6 -5 -3 -1 2 4 1 2 1 -5 -3 1 0 -0 -2 -4 -3 -1 -0 0 -3 -3 -3
-2 -1 -4 -0 -1 -4 -5 -5 -1 -4 -8 -4 2 -0 -4 -7 -8 -6 -6 -5 -3 -2 -3 -4 -1 -3 -5 -7 -7 -6 -5 -1 -1 -2 0 -0 -2 -4 -4 -4 -4 -4 -3 -3 -3
-3 -3 -5 -5 -2 -3 -5 -5 -6 -6 -2 -0 -2 -2 -5 -1 -4 -4 -1 -0 0 -2 -3 -2 3 -1 -1 -4 -4 -4 -6 -6 -3 -3 -4 -4 -2 -5 -5 -6 -5 -4 -4 -5 -4
-2 -4 -3 -4 -5 -4 -2 -3 -7 -8 -7 -3 1 -2 -3 -4 -6 -3 -1 -0 0 -1 -1 0 1 2 2 -2 -3 1 -2 -5 -6 -5 -4 1 1 -0 -1 -4 -5 -5 -3 -3 -4

GFSSW_850_dewp_093.txt.gz
Dewpoint
0 -1 -4 -7 -14 -17 -19 -20 -21 -22 -23 -24 -26 -25 -24 -25 -28 -30 -28 -15 -14 -7 -8 -8 -8 -6 0 1 -1 -3 -3 -2 -4 -6 -7 -8 -12 -10 -10 -9 -9 -9 -8 -1 4
-1 -3 -7 -11 -13 -17 -18 -20 -21 -22 -23 -25 -26 -27 -26 -25 -27 -29 -25 -21 -12 -10 -10 -9 -12 -1 0 -1 -2 -3 -3 -3 -6 -7 -6 -7 -9 -12 -9 -9 -9 -8 -8 2 5
-1 -2 -5 -10 -16 -16 -17 -19 -21 -22 -23 -24 -24 -25 -26 -26 -26 -11 -8 -10 -9 -9 -9 -10 -10 -9 -1 -1 -2 -5 -3 -5 -6 -7 -7 -7 -8 -10 -11 -10 -9 -8 -8 5 5
-1 -3 -5 -6 -15 -17 -18 -19 -18 -20 -20 -19 -19 -23 -25 -24 -8 -2 -11 -11 -11 -13 -16 -6 -6 -8 -5 -1 -3 -3 -5 -6 -7 -7 -7 -7 -8 -10 -10 -10 -11 -10 -10 -1 3
-0 -1 -1 -2 -4 -14 -18 -19 -18 -19 -17 -15 -14 -15 -18 -5 -12 -19 -20 -10 -12 -12 -14 -5 -4 -6 -4 -3 -3 -3 -4 -5 -6 -7 -7 -8 -8 -9 -10 -10 -10 -10 -9 -10 -2
-1 -0 -0 -1 -3 -7 -13 -19 -20 -17 -13 -13 -11 -12 -8 -2 -26 -12 -9 -8 -12 -8 -2 -1 -2 -2 -4 -3 -3 -3 -3 -4 -5 -6 -7 -7 -8 -9 -9 -9 -9 -9 -9 -9 -10
-1 -1 -0 -0 -2 -5 -8 -13 -21 -20 -16 -13 -8 -6 -1 -22 -26 -13 -10 -12 -10 -10 -9 -6 -1 -2 -4 -2 -4 -4 -2 -3 -4 -4 -5 -6 -5 -6 -7 -7 -7 -7 -8 -8 -10
-1 -1 -2 -2 -1 -4 -11 -16 -22 -24 -18 -5 -4 -5 -1 -27 -14 -14 -19 -12 -10 -9 -10 -6 -6 -6 -4 -3 -2 -1 -1 -0 -4 -5 -6 -6 -3 -5 -6 -6 -7 -7 -7 -8 -9
0 -1 -2 -2 -2 -3 -12 -21 -27 -26 -16 -2 0 -6 1 -5 -4 -11 -9 -11 -13 -9 -11 -9 -5 -6 -4 -1 1 -0 2 1 -1 -4 -4 -4 -3 -5 -6 -6 -6 -7 -8 -7 -9
0 -0 -2 -3 -3 -4 -11 -23 -9 -7 -2 2 3 3 -1 -8 -9 -8 -7 -7 -8 -11 -11 -11 -10 -7 -5 -1 3 1 1 -1 -1 -3 -4 -3 -3 -5 -6 -7 -8 -8 -9 -10 -9
-1 -1 -4 -3 -3 -5 -12 -10 -1 -0 2 3 2 -1 -5 -5 -6 -7 -9 -5 -4 -7 -9 -11 -9 -7 -8 -6 -4 -3 -2 -1 -3 -6 -5 -3 -2 -3 -6 -7 -7 -5 -7 -7 -7
-1 -2 -4 -3 -4 -6 -7 -2 1 -0 0 -1 -2 -1 1 -4 -1 -5 -7 -7 -0 -7 -10 -9 -8 -10 -11 -11 -9 -8 -5 -5 -6 -6 -5 -4 -1 -1 -2 -6 -6 -6 -5 -6 -6
-0 -2 -4 -3 -4 -7 -1 1 1 -1 1 -3 -7 -4 -4 -5 -3 -4 -8 -8 -5 1 -1 -4 -3 -8 -10 -11 -12 -13 -8 -5 -3 -3 -2 1 2 1 -2 -5 -6 -7 -7 -6 -6
0 -2 -3 -4 -6 1 3 1 1 -0 2 -3 -6 -8 -7 -7 -6 -7 -9 -8 -8 -7 -2 -0 -2 -3 -5 -9 -10 -10 -13 -10 -5 2 4 2 7 3 1 -3 -5 -6 -6 -6 -6
-1 -3 -3 -4 -5 -2 1 0 1 0 0 -9 -7 -7 -8 -7 -7 -7 -6 -8 -6 -7 -4 -3 -2 -3 -3 -5 -7 -6 -9 -8 1 3 4 4 7 4 -1 -2 -4 -6 -6 -6 -6
-2 -3 -3 -5 -4 -6 -1 -0 0 2 1 -8 -5 -5 -5 -5 -6 -6 -7 -7 -8 -7 -8 -6 -8 -7 -6 -6 -5 -5 -3 -1 1 3 8 5 6 5 1 -1 -4 -5 -6 -5 -6
-2 -3 -4 -4 -10 -1 1 0 2 3 -7 -12 -5 -5 -4 -3 -4 -4 -2 -2 -4 -5 -4 -8 -8 -10 -8 -5 -4 -3 -2 3 6 6 6 1 5 4 -0 -3 -5 -5 -5 -5 -6
-2 -2 -3 -5 -10 -7 0 2 3 -3 -5 -6 -3 -5 -4 -5 -4 -5 -2 -2 -4 -7 -7 -5 -4 -9 -10 -7 -2 -2 -1 5 6 8 9 3 8 6 2 1 -5 -5 -6 -7 -5
-2 -3 -4 -7 -8 -2 -0 2 1 -4 -6 -5 -3 -2 -5 -5 -6 -3 -5 -2 -5 -7 -4 -2 -3 -5 -11 -11 -4 -1 -0 -2 3 2 6 4 1 1 1 -0 -3 -6 -6 -4 -2
-2 -2 -4 -6 -2 -1 1 0 -3 -6 -6 -3 -0 -1 1 2 1 -6 -1 -1 -1 0 -3 -1 2 -1 -5 -9 -6 -5 -3 1 2 4 3 0 -2 4 2 2 1 -3 -3 -3 -2
-2 -3 -9 -7 -2 -1 0 -2 -5 -6 -6 -4 1 3 2 4 3 1 -1 3 3 1 2 4 4 1 -2 -9 -9 -6 -4 -2 -3 2 4 3 2 1 2 1 3 2 -1 -2 -2
-2 -2 -4 -4 -0 0 -1 -3 -5 -6 -6 -4 0 0 4 2 2 3 5 4 2 -1 0 -2 3 4 2 -1 -2 -9 -9 -8 -3 -2 -2 0 -1 -0 -2 2 3 5 5 -2 -2
-2 -3 -7 -2 -2 -1 -2 -3 -4 -4 -5 -5 -0 1 -1 1 2 2 1 -1 -3 -1 -2 -3 1 4 1 -1 2 3 -5 -7 -6 -5 -3 2 1 -5 -5 1 3 3 5 1 0
-2 -3 -4 -2 -0 0 -1 -1 -3 -7 -7 -7 -3 -2 -0 -1 -2 -2 -1 -0 -3 -4 -5 -4 -2 -0 2 1 1 -0 -2 -3 2 2 -1 -3 -5 -6 -4 1 4 3 2 -3 -1
-3 -3 -3 -1 -1 -1 -2 -2 -2 -2 -4 -6 -1 -2 -0 1 0 -4 -4 -0 -2 -1 -1 -1 -1 -1 -2 -3 -4 -4 -4 -5 -5 3 5 3 0 -3 -3 -2 -2 -3 -3 -4 -1
-3 -3 -5 -4 -5 1 0 -2 -3 -4 -2 -3 -2 -3 -1 0 0 0 -1 1 2 -0 0 1 3 3 2 -0 -1 -1 -3 -4 -5 -5 -4 -2 -2 -0 0 0 3 4 0 -4 -3
-3 -4 -4 -4 -3 -2 -1 0 -3 -5 -6 -6 -2 -1 0 2 0 -0 -1 -0 1 2 1 1 3 3 4 1 1 2 -1 -3 -4 -5 -5 -1 4 6 6 6 6 6 5 0 1

GFSSW_850_dewp_096.txt.gz
Dewpoint
-3 -5 -9 -10 -15 -21 -21 -21 -23 -25 -26 -27 -27 -28 -29 -30 -31 -30 -29 -24 -24 -13 -11 -6 -8 -4 -5 -0 -1 -1 -2 -2 -3 -4 -5 -7 -7 -7 -9 -9 -9 -7 -5 -4 2
-2 -2 -3 -8 -16 -19 -18 -20 -22 -22 -23 -25 -26 -25 -26 -27 -31 -31 -24 -18 -24 -21 -8 -7 -8 -10 -1 0 1 -1 -1 -1 -5 -6 -5 -7 -7 -7 -10 -9 -9 -9 -8 -6 1
0 -0 -1 -2 -5 -12 -17 -18 -19 -21 -22 -22 -21 -23 -23 -25 -28 -21 -10 -10 -10 -11 -9 -8 -8 -10 -3 -0 -0 -3 -0 -2 -3 -5 -6 -6 -6 -7 -10 -10 -9 -9 -8 -2 1
-1 -1 -1 -1 -1 -3 -10 -17 -19 -21 -21 -21 -19 -20 -21 -21 -17 -1 -9 -14 -9 -11 -13 -13 -7 -8 -8 -2 -1 -0 -3 -4 -5 -5 -6 -6 -7 -8 -8 -9 -9 -11 -10 -3 5
-0 -1 -1 -0 -1 -2 -5 -14 -19 -21 -21 -18 -13 -10 -13 -10 -22 -20 -6 -16 -10 -10 -11 -12 -4 -6 -6 -5 -4 -2 -2 -3 -3 -4 -6 -6 -7 -7 -8 -8 -8 -10 -9 -4 1
0 -0 -1 -0 -1 -2 -3 -11 -21 -22 -21 -16 -13 -8 -1 -2 -23 -18 -23 -24 -9 -6 -7 -3 -3 -4 -5 -3 -3 -3 -3 -3 -3 -3 -4 -6 -6 -7 -8 -8 -9 -9 -9 -7 -4
1 1 -1 -1 -1 -2 -4 -6 -21 -23 -23 -18 -12 -1 3 -19 -24 -24 -19 -9 -9 -5 -8 -9 -5 -2 -2 -2 -3 -3 -3 -3 -3 -4 -4 -4 -4 -6 -6 -7 -7 -7 -7 -7 -8
-0 0 0 -1 -2 -3 -4 -8 -22 -24 -23 -19 -12 2 2 -24 -27 -26 -20 -14 -11 -8 -9 -9 -9 -9 -4 -4 -2 -1 -1 1 -3 -4 -4 -5 -2 -4 -6 -6 -6 -7 -6 -6 -7
-1 -1 -1 0 -1 -4 -6 -14 -24 -26 -21 -20 -7 1 -0 -10 -7 -10 -9 -15 -17 -12 -10 -11 -10 -7 -5 -1 0 -0 2 1 -0 -4 -3 -4 -2 -5 -6 -6 -5 -5 -6 -6 -6
-1 -2 -1 -1 -3 -5 -7 -22 -12 -1 -5 -4 2 3 -4 -8 -7 -9 -8 -7 -7 -10 -11 -10 -10 -7 -4 -0 1 1 2 0 0 -3 -3 -2 -2 -4 -4 -4 -3 -3 -5 -6 -8
-2 -2 -1 -1 -3 -5 -7 -8 0 0 3 1 1 -1 -8 -5 -3 -6 -5 -7 -7 -10 -9 -10 -9 -6 -5 -3 -2 -1 -1 -0 -3 -4 -5 -5 -5 -6 -4 -2 -2 -3 -5 -7 -10
-1 -2 -1 -1 -4 -5 -5 -4 1 2 1 -2 -3 0 -3 -4 1 -6 -4 -5 -3 -4 -8 -9 -7 -10 -9 -8 -7 -6 -5 -3 -5 -7 -6 -6 -3 -2 -2 -2 -2 -2 -3 -6 -7
-2 -2 -0 -1 -5 -7 1 2 1 1 -0 -2 -5 -3 -4 -7 -2 -7 -5 -7 -7 -2 -7 -7 -8 -10 -9 -9 -9 -9 -8 -8 -7 -7 -4 -0 -1 -3 -4 -1 -1 -2 -3 -5 -6
-1 -1 0 -3 -5 -4 0 -0 1 2 -1 -5 -3 -6 -6 -6 -4 -12 -12 -9 -8 -6 -0 -0 -5 -9 -6 -9 -9 -8 -11 -11 -12 -9 -5 -0 1 -2 -2 -2 -1 -1 -2 -4 -6
-3 -1 -1 -3 -5 -5 -1 -1 0 0 -11 -11 -6 -8 -7 -6 -7 -7 -7 -8 -8 -7 -7 -4 -1 0 0 -1 -8 -8 -9 -9 -11 -1 3 4 5 -1 2 1 0 -1 -3 -4 -5
-4 -1 -1 -4 -5 -7 -0 -1 -0 -1 -4 -7 -5 -5 -5 -6 -5 -6 -7 -7 -8 -7 -7 -6 -8 -8 -5 -6 -5 -5 -4 -2 1 3 5 5 4 -1 2 1 -0 -2 -3 -4 -5
-4 -2 -1 -4 -6 -6 -3 -0 1 2 -5 -4 -3 -4 -3 -3 -4 -5 -2 -4 -5 -3 -4 -6 -6 -8 -9 -7 -7 -4 -2 2 4 6 6 2 5 1 0 -0 -0 -0 -2 -2 -2
-3 -1 -2 -4 -5 -5 -1 0 2 -2 -3 -4 -3 -3 -2 -3 -2 -3 -1 -1 -3 -7 -6 -4 -3 -8 -9 -7 -5 -3 -1 3 4 6 4 4 6 6 2 0 0 1 0 -1 -1
-2 -2 -3 -7 -5 -3 -0 2 1 -2 -5 -3 -3 -0 -0 -1 1 -2 -2 -1 -3 -4 -3 -3 -5 -9 -10 -10 -7 -4 -0 -1 2 3 4 4 2 -1 0 3 4 3 2 -2 -3
-3 -3 -6 -6 -3 -2 1 -0 -1 -5 -5 -4 -1 2 3 2 1 3 -1 -1 -3 -5 -6 -1 1 -2 -3 -10 -8 -4 -3 1 1 4 5 2 -0 0 3 5 5 5 4 3 4
-3 -2 -5 -4 -3 -3 -2 -2 -4 -7 -6 -2 1 0 -1 2 2 3 4 3 3 2 -1 2 3 1 -1 -7 -6 -5 -4 -0 1 3 4 4 2 5 7 6 6 3 3 3 2
-2 -5 -6 -2 -1 -1 -3 -2 -5 -5 -5 -5 -1 -1 1 4 3 2 3 3 3 3 2 -0 4 5 2 0 0 -2 -5 -0 4 3 3 3 2 3 5 6 4 3 4 5 4
-2 -2 -6 -3 -1 -1 -2 -2 -4 -4 -4 -4 -2 -1 1 3 4 3 4 1 2 3 3 -1 1 4 2 3 3 4 2 -2 1 -3 -2 1 0 -4 -1 2 3 5 5 3 2
-2 -3 -4 -3 -1 0 -2 -3 -2 -4 -4 -5 -5 -5 -2 0 1 1 2 0 -1 2 1 -3 -1 0 2 0 1 3 4 -2 0 5 3 2 -1 -1 2 1 4 5 4 3 1
-3 -5 -3 -1 -2 -1 -2 0 -1 -2 -4 -3 -3 -4 -3 0 0 1 2 2 2 2 0 -0 -0 1 1 -1 -2 -3 1 -1 -2 -0 4 5 4 2 4 4 5 5 5 2 1
-4 -4 -4 -4 -4 -2 -2 -1 -2 -3 -3 -0 -2 -2 -2 -0 -0 1 2 1 1 1 0 1 3 2 2 -0 -0 1 -1 -2 -2 -3 -3 -1 1 6 5 5 5 7 5 2 3
-3 -4 -3 -4 -3 -3 -1 -2 -1 -2 -2 -3 -3 -3 -0 -1 1 1 1 0 1 1 0 1 2 2 4 2 1 2 -0 -2 -2 5 4 3 7 5 5 5 6 8 7 7 7

GFSSW_850_dewp_099.txt.gz
Dewpoint
-4 -5 -8 -9 -13 -21 -22 -19 -21 -21 -22 -24 -24 -26 -29 -28 -31 -31 -30 -27 -27 -25 -20 -18 -6 -3 -4 -3 -3 -1 -1 -0 -1 -4 -5 -7 -6 -7 -7 -8 -9 -5 -3 -3 -0
-0 -0 -2 -6 -8 -9 -19 -24 -21 -19 -21 -21 -23 -23 -26 -25 -29 -29 -24 -24 -26 -27 -13 -15 -3 -2 -3 -2 0 0 1 -0 -3 -6 -5 -5 -6 -6 -6 -8 -9 -9 -7 -6 -1
-1 -1 -2 -2 -3 -5 -7 -13 -23 -22 -20 -20 -20 -22 -26 -24 -27 -24 -10 -10 -8 -19 -15 -6 -5 -5 -1 0 -0 -1 1 -2 -3 -4 -4 -5 -5 -5 -7 -8 -8 -9 -9 -5 2
1 -0 -1 -1 -2 -2 -2 -5 -11 -21 -20 -20 -15 -13 -18 -20 -18 -3 -8 -13 -9 -8 -7 -6 -5 -8 -9 -3 -1 0 -3 -2 -2 -3 -3 -4 -5 -6 -7 -7 -7 -7 -9 -8 -1
1 1 1 0 -1 -1 -3 -4 -5 -10 -19 -19 -14 -12 -11 -5 -20 -23 -6 -8 -11 -9 -10 -10 -7 -7 -7 -7 -6 -0 -1 -2 -2 -2 -3 -3 -4 -5 -6 -5 -6 -7 -8 -9 -7
0 -0 1 1 0 -1 -1 -3 -8 -10 -15 -18 -17 -11 -1 2 -24 -22 -23 -22 -16 -10 -8 -6 -7 -7 -7 -7 -5 -4 -4 -3 -3 -3 -3 -3 -3 -4 -5 -5 -5 -6 -8 -8 -7
-0 -0 -1 -1 -0 -0 -1 -2 -5 -12 -13 -17 -12 -8 0 -12 -22 -21 -17 -12 -16 -10 -5 -2 -3 -0 -2 -2 -3 -4 -2 -3 -3 -3 -4 -4 -3 -4 -4 -5 -5 -6 -7 -7 -6
-2 -1 -1 -1 -2 -1 -1 -3 -6 -13 -16 -18 -11 -3 1 -30 -19 -22 -24 -24 -21 -13 -6 -7 -9 -10 -9 -6 -2 -2 -1 1 -2 -3 -3 -3 -1 -4 -5 -5 -6 -6 -6 -6 -5
-2 -2 -2 -2 -2 -2 -2 -4 -8 -16 -19 -17 -9 -0 -0 -12 -11 -7 -8 -17 -21 -12 -9 -9 -10 -9 -4 -2 -1 -0 1 1 -0 -3 -3 -4 -2 -4 -5 -4 -4 -4 -5 -5 -4
0 -1 -2 -3 -2 -2 -3 -5 -14 1 -1 -2 0 1 -9 -9 -3 -3 -6 -8 -10 -13 -11 -9 -10 -7 -3 -1 1 0 2 1 1 -2 -3 -2 -2 -4 -5 -5 -5 -4 -5 -5 -5
-2 -1 -1 -1 -2 -2 -4 -8 0 1 3 1 2 -1 -5 -3 -6 -4 -4 -5 -6 -10 -9 -9 -8 -6 -5 -2 -3 -1 -0 1 -2 -4 -4 -3 -4 -5 -7 -6 -3 -4 -4 -3 -5
-3 -3 -2 -2 -1 -2 -5 -6 -1 1 1 -0 -1 1 -3 -1 0 -9 -4 -4 -5 -5 -9 -9 -7 -9 -7 -5 -4 -4 -2 -2 -4 -4 -4 -4 -5 -8 -6 -3 -3 -3 -2 -3 -3
-2 -3 -3 -1 -0 -3 -5 -1 0 1 2 -0 -3 -2 -4 -4 -0 -4 -6 -5 -6 -0 -6 -4 -6 -9 -9 -8 -7 -7 -6 -7 -5 -9 -8 -4 -5 -4 -4 -4 -4 -4 -4 -4 -3
-4 -3 -2 -1 -1 -4 -4 0 0 2 2 -3 -3 -5 -5 -5 -2 -10 -11 -8 -8 -6 -5 -2 -7 -8 -8 -9 -9 -8 -10 -10 -9 -9 -8 -4 -5 -8 -5 -4 -2 -2 -3 -4 -3
-3 -4 -3 -2 -1 -4 -5 -0 1 2 -5 -13 -5 -6 -4 -4 -7 -5 -8 -7 -8 -6 -4 -1 -2 -2 -7 -6 -9 -8 -8 -8 -8 -9 -8 -4 4 -2 -1 -1 -4 -4 -3 -2 -2
-4 -3 -2 -1 -1 -4 -5 -0 1 -0 -1 -6 -5 -4 -4 -5 -6 -7 -7 -8 -10 -8 -7 -6 -8 -7 -2 -4 -3 -5 -6 -4 -4 -4 3 -2 4 -2 -3 -1 -1 -2 -1 2 -1
-5 -3 -2 -3 -3 -4 -3 0 1 1 -7 -2 -3 -4 -3 -3 -5 -5 -4 -4 -5 -5 -5 -8 -8 -8 -8 -7 -7 -5 -3 2 4 6 4 3 4 -0 -2 -1 -0 2 4 3 2
-5 -3 -3 -3 -3 -4 -2 -1 -1 -4 -3 -5 -5 -2 1 1 -1 -3 -1 -3 -4 -7 -6 -4 -4 -7 -8 -7 -6 -4 -3 2 3 4 1 2 5 1 1 2 4 4 4 3 3
-5 -6 -4 -5 -4 -4 -1 -1 1 -1 -5 -3 -2 2 1 -1 0 2 -1 -1 -3 -6 -4 -4 -4 -8 -9 -9 -8 -5 -1 -3 0 2 4 4 3 -1 1 5 5 5 4 4 3
-4 -5 -6 -3 -3 -2 -1 0 -1 -6 -6 -3 1 0 1 -0 2 1 3 4 3 2 -3 -5 -1 -2 -3 -10 -8 -7 -5 -0 1 4 4 2 1 1 6 7 5 5 5 4 4
-3 -4 -5 -4 -3 -3 -4 -3 -4 -6 -5 -2 -1 0 -1 3 4 2 4 3 2 3 3 -2 1 -2 -1 -5 -7 -4 -2 -1 -1 2 3 3 2 6 6 5 6 6 5 5 4
-3 -5 -5 -3 -3 -3 -5 -3 -4 -4 -6 -5 -2 -1 3 1 2 2 5 4 1 2 4 1 4 2 -1 2 2 -6 -3 0 2 2 3 3 2 2 1 5 6 6 6 5 5
-4 -3 -5 -5 -0 -3 -2 -2 -4 -4 -4 -3 -3 -2 0 1 0 3 2 -0 0 0 4 3 4 4 2 3 1 4 3 -1 2 -1 2 3 3 -0 -0 2 4 6 6 4 5
-4 -4 -5 -2 -1 -1 -1 -2 -3 -4 -3 -4 -4 -5 -4 0 -0 1 2 1 1 1 1 3 4 4 3 1 1 2 3 2 1 4 3 3 2 2 4 4 5 5 4 5 5
-3 -5 -4 -2 -1 -1 -1 -2 -2 -3 -4 -2 -2 -4 -3 -1 0 0 1 3 1 1 3 4 4 4 2 -0 -2 -0 0 2 -1 -0 2 2 2 5 6 5 5 5 6 6 4
-3 -5 -4 -4 -5 -3 -3 -2 -3 -1 -3 -3 -1 -1 -1 2 -1 -0 0 3 2 1 3 3 4 3 2 0 -1 0 -1 -1 -1 -2 -1 1 1 5 5 5 7 8 6 6 5
-3 -3 -3 -4 -4 -4 -2 -3 -2 -4 -5 -2 -1 -0 0 -2 -2 -3 -1 -0 1 2 1 1 2 2 3 2 0 1 -0 -1 5 5 6 5 6 5 5 6 7 7 7 7 6

GFSSW_850_dewp_102.txt.gz
Dewpoint
0 -2 -3 -4 -6 -7 -10 -9 -11 -13 -12 -18 -20 -21 -22 -24 -28 -27 -28 -28 -28 -28 -25 -17 -6 -3 -4 -3 -2 -2 -2 0 -2 -3 -5 -7 -6 -6 -6 -7 -6 -7 -6 -1 0
0 -1 -1 -2 -2 -3 -5 -5 -8 -10 -12 -15 -17 -19 -21 -21 -27 -26 -22 -18 -20 -26 -27 -23 -13 -3 -1 -2 -1 -1 0 -3 -4 -5 -5 -6 -5 -5 -6 -6 -6 -7 -7 -6 -6
0 1 1 -0 -1 -2 -3 -5 -6 -6 -8 -11 -15 -19 -22 -21 -25 -21 -8 -9 -9 -16 -27 -18 -12 -2 -1 -0 0 0 0 -2 -3 -4 -5 -5 -5 -4 -5 -5 -6 -6 -6 -6 -2
0 -1 -0 0 0 -0 -1 -2 -3 -4 -6 -8 -11 -15 -19 -16 -18 -8 -6 -10 -8 -12 -10 -8 -2 -4 -7 -1 -0 0 -1 -2 -2 -3 -3 -3 -4 -6 -6 -5 -6 -4 -4 -6 -4
-0 0 0 -0 -1 -1 -1 -1 -2 -3 -4 -6 -8 -9 -7 -3 -11 -26 -20 -5 -7 -8 -14 -4 -4 -5 -8 -9 -8 -1 -1 -2 -2 -2 -3 -3 -3 -3 -5 -3 -4 -4 -5 -6 -7
-2 -2 -1 -1 -1 -1 -2 -2 -2 -2 -4 -6 -7 -5 1 1 -22 -22 -22 -25 -22 -10 -9 -5 -8 -8 -7 -8 -6 -6 -5 -5 -4 -3 -2 -2 -2 -3 -3 -4 -4 -5 -5 -5 -7
-3 -4 -3 -2 -2 -2 -2 -3 -3 -3 -4 -6 -9 -2 1 -4 -27 -23 -21 -19 -11 -13 -10 -8 -9 -3 -4 -4 -5 -4 -4 -4 -3 -3 -3 -3 -2 -3 -4 -4 -4 -4 -5 -6 -6
-3 -3 -2 -2 -3 -2 -3 -3 -3 -4 -6 -9 -10 -3 0 -18 -24 -29 -28 -25 -22 -13 -15 -7 -2 -4 -7 -7 -4 -1 -2 1 -2 -3 -3 -3 -1 -3 -4 -4 -5 -5 -5 -5 -5
-2 -3 -3 -2 -2 -3 -3 -3 -3 -5 -9 -11 -4 -0 -1 -16 -15 -12 -5 -8 -18 -19 -18 -11 -3 -9 -6 -5 -2 -1 1 1 -0 -3 -3 -2 -2 -4 -4 -4 -5 -5 -5 -7 -7
-5 -5 -4 -4 -3 -3 -2 -2 -5 -1 2 1 0 -1 -10 -19 -4 -2 -3 -3 -7 -14 -11 -7 -9 -7 -4 -1 -0 0 2 1 0 -2 -2 -1 -1 -3 -4 -6 -6 -7 -7 -6 -7
-3 -3 -4 -4 -4 -2 -3 -1 -6 1 2 2 1 -1 -6 -1 -3 -1 -1 -4 -6 -9 -8 -9 -7 -6 -5 -2 -3 -2 -1 0 -2 -3 -3 -2 -3 -5 -6 -7 -8 -7 -7 -6 -6
-7 -6 -6 -5 -4 -2 -2 -0 -4 -0 -0 -1 -3 -2 -1 -1 2 -6 -6 -3 -5 -5 -9 -8 -6 -9 -8 -4 -2 -2 -1 -0 -3 -4 -3 -3 -3 -6 -8 -8 -8 -7 -5 -5 -5
-5 -5 -4 -4 -3 -2 -1 -2 -4 -1 1 -1 -2 -1 -3 -3 0 -4 -7 -4 -4 -4 -6 -5 -6 -9 -8 -5 -4 -4 -2 -4 -3 -8 -10 -8 -9 -10 -9 -6 -5 -5 -5 -5 -5
-6 -5 -5 -3 -3 -2 -3 -2 -2 -0 0 -1 -2 -3 -3 -4 -1 -6 -6 -6 -7 -2 -2 -4 -6 -7 -8 -7 -6 -4 -8 -7 -7 -9 -8 -7 -6 -10 -8 -7 -6 -5 -5 -5 -2
-7 -7 -6 -4 -2 -2 -3 -3 -2 -0 1 -11 -4 -5 -4 -5 -6 -4 -5 -6 -6 -6 -4 -1 -1 -4 -4 -8 -9 -8 -9 -8 -9 -8 -9 -2 -4 -4 -6 -5 -5 -6 -5 -0 3
-6 -6 -6 -5 -2 -2 -3 -3 -2 2 -1 -3 -5 -4 -3 -4 -5 -6 -7 -8 -9 -9 -8 -6 -8 -5 -4 -6 -9 -7 -6 -6 -5 -5 -0 -4 -5 -3 -4 -4 -2 -2 2 4 4
-8 -7 -6 -4 -1 -1 -2 -2 1 0 -7 -2 -4 -4 -3 -1 -4 -4 -6 -5 -6 -7 -7 -9 -10 -8 -8 -7 -7 -6 -3 1 4 4 2 -2 -0 -3 -3 -1 2 4 4 4 4
-6 -6 -7 -7 -3 -3 -3 -0 0 -1 -3 -6 -4 -0 1 -0 0 0 -3 -3 -5 -7 -5 -4 -6 -9 -8 -7 -6 -4 -3 2 4 4 2 2 4 2 2 4 4 4 4 4 3
-5 -6 -6 -4 -4 -3 -3 -1 0 1 -4 -4 -2 -0 -0 -1 1 1 2 5 3 2 -3 -4 -5 -8 -9 -9 -8 -4 -2 -4 -1 -0 3 1 2 -2 3 5 5 5 4 4 4
-5 -5 -5 -4 -3 -2 -5 -2 -1 -2 -5 -3 -0 -1 1 2 2 2 4 3 3 2 2 -4 -3 -4 -3 -9 -9 -7 -5 -0 1 4 3 1 2 1 3 4 5 5 5 6 4
-4 -4 -3 -4 -2 -5 -7 -3 -4 -6 -5 -3 -2 -1 1 0 1 3 5 3 1 2 2 2 -0 -2 -5 -4 -5 -5 -4 -3 -2 1 2 1 0 0 3 3 6 6 6 5 4
-3 -5 -4 -2 -3 -4 -5 -5 -5 -4 -7 -4 -3 -1 1 1 1 2 2 2 0 0 4 3 3 3 -1 -2 1 -5 -2 -3 1 1 3 1 0 3 2 4 5 7 5 4 4
-3 -4 -4 -3 -4 -2 -6 -2 -3 -3 -3 -3 -3 -3 -1 1 -1 1 2 0 0 2 3 3 4 5 2 2 -0 2 2 0 1 -0 2 3 2 -1 2 3 5 6 4 4 4
-3 -4 -5 -2 -3 -1 -1 -2 -2 -4 -3 -3 -3 -4 -4 -1 -0 -1 1 1 2 2 3 2 3 3 4 3 1 2 2 2 1 2 1 1 2 2 5 6 5 5 5 6 5
-3 -5 -4 -4 -1 -2 -1 -2 -1 -2 -4 -3 -3 -1 0 0 -1 1 1 1 1 1 3 3 4 3 3 4 3 1 3 1 1 -1 1 0 2 5 6 6 6 7 5 7 7
-4 -4 -3 -3 -4 -4 -3 -3 -1 -3 -2 -1 -2 -2 -0 1 -1 1 -1 1 3 2 3 3 4 4 3 3 1 1 2 2 2 2 1 0 1 5 4 6 6 7 7 7 6
-4 -4 -3 -6 -4 -4 -3 -3 -2 -4 -5 -2 -4 -2 -1 -0 -2 -2 -2 -2 -0 1 2 3 3 3 2 2 1 2 -0 1 5 5 5 4 5 4 5 6 6 5 5 5 4

GFSSW_850_dewp_105.txt.gz
Dewpoint
2 1 -2 -2 -2 -3 -3 -5 -6 -7 -8 -11 -15 -20 -24 -25 -28 -27 -26 -25 -24 -26 -28 -26 -6 -5 -6 -3 -4 -3 -3 -3 -6 -6 -9 -6 -6 -7 -6 -6 -6 -8 -6 -6 -3
-1 -2 -2 -2 -2 -2 -2 -2 -3 -4 -4 -6 -10 -18 -21 -24 -26 -26 -22 -18 -17 -19 -27 -26 -7 -2 -3 -2 -3 -3 -3 -6 -5 -6 -6 -6 -6 -6 -6 -5 -6 -7 -7 -5 -5
-4 -2 -1 -1 -2 -1 -2 -2 -2 -2 -3 -4 -6 -9 -17 -23 -24 -21 -7 -7 -8 -8 -23 -21 -13 -2 -1 -1 -0 -1 -3 -4 -5 -6 -6 -6 -6 -5 -5 -5 -5 -6 -5 -4 -4
-5 -3 -2 -2 -2 -2 -3 -3 -3 -3 -3 -3 -4 -7 -11 -16 -19 -12 -4 -7 -7 -9 -18 -12 -4 -0 -1 -1 0 -0 -1 -4 -4 -4 -4 -4 -4 -4 -4 -5 -6 -5 -4 -4 -5
-13 -8 -5 -5 -5 -3 -3 -4 -4 -4 -5 -4 -3 -5 -7 -3 -7 -28 -26 -21 -23 -9 -15 -5 -2 -3 -4 -5 -3 0 -2 -1 -2 -3 -3 -3 -3 -3 -4 -4 -5 -4 -4 -5 -5
-5 -5 -4 -3 -3 -3 -3 -4 -3 -4 -5 -4 -4 -4 -1 -1 -18 -22 -21 -22 -20 -17 -12 -7 -4 -4 -6 -7 -8 -8 -6 -6 -4 -3 -2 -2 -2 -2 -3 -4 -4 -4 -4 -4 -5
-4 -4 -4 -5 -4 -4 -3 -3 -4 -5 -7 -5 -5 -2 0 -3 -20 -21 -19 -25 -17 -11 -6 -7 -4 -6 -6 -6 -6 -5 -5 -6 -6 -6 -4 -3 -2 -2 -3 -3 -3 -3 -4 -4 -5
-7 -8 -7 -7 -7 -6 -6 -6 -5 -6 -7 -6 -5 -0 -1 -9 -23 -27 -25 -23 -24 -19 -10 -9 -1 -2 -2 -3 -6 -2 -1 -2 -3 -3 -4 -4 -2 -3 -4 -4 -4 -4 -5 -5 -5
-9 -9 -8 -8 -7 -7 -7 -7 -6 -8 -7 -7 1 -0 -2 -14 -18 -7 -7 -11 -14 -22 -19 -13 -10 -7 -7 -4 -2 -1 -0 1 -1 -3 -3 -3 -3 -4 -4 -4 -4 -4 -6 -6 -7
-9 -10 -10 -9 -8 -8 -7 -7 -8 -6 -1 1 1 0 -8 -16 -8 -3 -2 -2 -3 -8 -10 -11 -8 -5 -5 -6 -5 -4 0 -0 -1 -2 -2 -1 -1 -3 -3 -4 -5 -5 -5 -7 -10
-8 -8 -8 -7 -7 -6 -5 -6 -4 -4 -2 0 0 -1 -2 -1 -2 -0 -2 -2 -5 -8 -10 -8 -5 -4 -5 -5 -6 -3 -3 -3 -1 -3 -2 -1 -1 -3 -4 -4 -5 -5 -6 -9 -11
-8 -8 -7 -7 -6 -6 -4 -3 -1 -1 -2 -3 -4 -3 -3 -1 -0 -6 -3 -2 -5 -5 -8 -6 -2 -5 -8 -5 -5 -4 -3 -2 -2 -3 -3 -3 -3 -6 -8 -9 -10 -10 -10 -11 -7
-7 -8 -8 -8 -8 -6 -4 -3 -2 -3 -1 -4 -4 -1 -2 -4 -2 -5 -4 -4 -4 -5 -6 -4 -8 -8 -8 -7 -4 -3 -2 -2 -2 -5 -8 -8 -9 -14 -11 -11 -10 -9 -7 -5 -4
-7 -7 -7 -9 -6 -5 -2 -2 -3 -2 -1 -5 -1 -1 -1 -2 -1 -4 -8 -8 -4 -4 -5 -6 -8 -7 -6 -7 -7 -5 -5 -4 -3 -4 -4 -8 -10 -9 -9 -9 -7 -7 -5 -3 4
-8 -8 -8 -8 -4 -3 -3 -3 -3 -2 -1 -8 -3 -4 -3 -4 -6 -2 -4 -6 -7 -3 -2 -1 -1 -3 -5 -7 -6 -7 -6 -5 -5 -6 -8 -8 -5 -5 -6 -6 -6 -5 1 4 4
-10 -9 -9 -7 -6 -4 -4 -5 -3 -2 -1 -2 -1 -2 -3 -4 -5 -6 -5 -7 -7 -6 -7 -4 -7 -4 -3 -7 -8 -9 -7 -6 -5 -5 -1 -4 -4 -4 -5 -5 -2 3 4 4 4
-8 -8 -7 -6 -5 -4 -4 -5 -3 -1 -5 -2 0 2 1 -0 -2 -4 -6 -6 -7 -4 -5 -9 -7 -8 -7 -5 -8 -5 -2 1 4 1 1 -4 -4 -4 -4 0 4 4 3 3 3
-7 -8 -7 -4 -3 -4 -5 -2 -1 1 -3 -6 -1 2 2 1 -0 0 -6 -3 2 -2 -9 -9 -10 -10 -9 -6 -5 -4 -3 -1 0 4 0 -1 -1 -2 -1 4 4 3 3 3 4
-8 -8 -5 -5 -3 -4 -6 -2 -2 0 -2 -4 -5 0 1 1 1 3 3 4 3 3 -2 -4 -6 -10 -9 -10 -7 -4 -3 -3 -1 0 1 -1 0 -1 5 4 4 3 4 4 4
-8 -8 -5 -5 -3 -5 -4 -3 -3 -3 -5 -5 -4 -3 1 -1 2 4 4 4 4 1 2 -1 -2 -4 -5 -9 -8 -5 -4 -1 -0 1 1 -1 -0 -1 3 2 4 3 4 4 4
-7 -6 -4 -3 -4 -6 -4 -4 -4 -6 -6 -5 -3 -1 -0 -0 0 4 3 1 1 2 1 2 -0 -2 -4 -4 -6 -6 -6 -3 -2 -0 -2 -1 -2 -2 2 2 2 4 5 4 5
-5 -5 -5 -5 -3 -4 -3 -5 -4 -6 -5 -4 -4 -1 -1 -0 -0 0 2 1 0 1 4 3 3 3 -2 -3 -0 -4 -4 -5 -3 -0 0 -2 -3 2 2 2 4 5 6 5 6
-4 -5 -4 -3 -4 -3 -4 -4 -3 -3 -3 -2 -3 -3 -4 -1 -1 -0 0 0 1 1 3 2 4 4 2 3 -1 2 1 -2 -1 -1 -1 0 -1 2 4 4 5 5 5 7 6
-4 -5 -6 -4 -4 -3 -2 -3 -2 -4 -3 -2 -2 -3 -1 -2 -1 -0 -0 0 1 1 3 2 3 3 1 2 2 2 1 1 1 2 -0 -0 -1 3 5 6 6 6 6 7 6
-4 -5 -4 -5 -2 -4 -3 -3 -2 -1 -3 -3 -3 -3 -1 0 -1 -0 0 -1 -2 1 3 3 4 3 2 3 3 2 1 1 1 -0 1 0 1 -0 4 6 6 6 6 6 6
-5 -4 -3 -3 -4 -4 -4 -4 -2 -4 -4 -1 -4 -4 -3 -1 1 1 -1 -1 -0 0 2 2 3 3 3 2 2 -0 -1 2 2 1 2 1 1 4 4 6 5 5 5 5 4
-4 -5 -4 -5 -5 -4 -4 -4 -4 -5 -7 -5 -4 -4 -3 -2 -1 -0 -1 -1 -2 -1 2 4 3 2 1 2 0 -2 -1 0 2 4 4 3 4 4 5 5 4 4 4 3 2

GFSSW_850_dewp_108.txt.gz
Dewpoint
-3 -3 -5 -6 -7 -8 -8 -6 -6 -7 -9 -11 -15 -18 -19 -24 -26 -26 -19 -18 -22 -22 -23 -25 -24 -5 -2 -5 -4 -5 -5 -5 -6 -8 -10 -9 -9 -7 -7 -7 -7 -6 -5 -0 -5
-6 -8 -6 -4 -7 -9 -9 -7 -6 -6 -9 -11 -11 -11 -16 -21 -25 -25 -18 -17 -17 -13 -18 -7 -7 -4 -3 -4 -4 -5 -4 -5 -7 -8 -8 -10 -9 -9 -8 -9 -8 -7 -4 2 2
-11 -10 -7 -6 -7 -7 -6 -6 -7 -8 -8 -10 -11 -11 -14 -21 -11 -19 -9 -5 -7 -7 -6 -5 -9 -5 -4 -4 -4 -4 -4 -5 -6 -8 -8 -9 -9 -9 -8 -10 -10 -7 -6 -4 2
-15 -14 -11 -9 -7 -6 -5 -5 -5 -5 -7 -8 -9 -7 -11 -11 -19 -7 -9 -6 -8 -12 -2 -6 -4 -3 -5 -4 -4 -3 -5 -5 -6 -6 -7 -7 -9 -8 -8 -8 -9 -7 -6 -4 -4
-7 -7 -7 -6 -6 -6 -6 -7 -8 -9 -8 -7 -8 -6 -2 -2 -5 -16 -26 -24 -23 -8 -6 -6 -7 -7 -6 -9 -7 -3 -4 -5 -4 -5 -6 -6 -6 -6 -6 -6 -5 -6 -5 -4 -4
-10 -8 -7 -7 -8 -9 -10 -11 -13 -15 -14 -9 -7 -6 -0 -1 -11 -16 -19 -20 -15 -2 -8 -7 -7 -8 -8 -9 -7 -7 -6 -5 -5 -4 -5 -4 -5 -5 -4 -4 -4 -4 -4 -5 -5
-13 -13 -12 -11 -12 -12 -12 -13 -15 -17 -17 -14 -10 -0 -1 -2 -13 -15 -17 -19 -18 -9 -4 -6 -6 -6 -7 -7 -8 -8 -6 -7 -7 -7 -7 -6 -5 -5 -7 -7 -6 -6 -6 -6 -4
-17 -15 -14 -14 -14 -13 -14 -14 -14 -15 -15 -14 -11 1 -0 -2 -7 -19 -21 -8 -11 -17 -9 -3 -2 -3 -5 -6 -6 -6 -6 -5 -7 -7 -7 -6 -2 -5 -4 -4 -4 -4 -4 -3 -4
-16 -13 -12 -12 -12 -11 -12 -12 -12 -12 -10 -8 -1 1 -3 -4 -5 -13 -7 -8 -9 -8 -9 -11 -8 -5 -5 -3 -4 -4 -3 -3 -4 -5 -5 -5 -3 -6 -6 -5 -5 -4 -4 -4 -4
-13 -11 -10 -11 -11 -11 -9 -10 -8 -4 -1 1 1 1 -1 -6 -4 -1 -0 -3 -3 -6 -7 -9 -11 -9 -5 -5 -2 -4 -2 -3 -2 -4 -3 -3 -3 -5 -4 -4 -3 -3 -4 -4 -4
-10 -9 -9 -10 -11 -9 -5 -4 -5 -5 -3 -5 -8 -2 -5 -6 -3 -2 -1 0 -2 -6 -13 -14 -10 -7 -9 -6 -6 -6 -7 -6 -8 -6 -3 -3 -4 -4 -5 -4 -4 -4 -4 -5 -4
-7 -8 -9 -10 -11 -6 -1 -3 -2 -2 -1 -6 -5 -5 -5 -8 -7 -5 -2 -1 -3 -5 -14 -11 -8 -12 -11 -10 -6 -5 -3 -6 -9 -5 -3 -5 -5 -6 -6 -6 -6 -8 -10 -10 -9
-7 -8 -8 -11 -10 -2 -1 -2 -1 -1 -3 -8 -8 -5 -5 -5 -6 -6 -4 -2 -4 -6 -10 -9 -12 -13 -10 -8 -5 -3 -3 -4 -7 -8 -6 -6 -7 -9 -11 -13 -14 -14 -12 -12 -9
-8 -10 -10 -12 -2 -4 -2 -2 -1 -1 -1 -9 -3 -1 -0 -3 -3 -6 -7 -3 -4 -5 -9 -10 -9 -10 -7 -6 -6 -5 -8 -8 -5 -1 -5 -10 -9 -11 -12 -11 -11 -10 -8 -6 -1
-12 -8 -10 -9 -6 -2 -3 -2 -1 -1 -3 -6 0 2 1 -2 -6 -7 -8 -7 -5 -5 -5 -5 -8 -6 -6 -7 -8 -7 -10 -8 -6 -5 -6 -10 -9 -12 -9 -9 -9 -8 -4 1 3
-11 -8 -8 -4 -5 -5 -4 -4 -1 0 -1 -3 -4 -0 3 -2 -4 -4 -5 -8 -10 -7 -5 -6 -4 -8 -8 -7 -8 -8 -6 -7 -7 -7 -5 -8 -11 -11 -9 -8 -7 -2 1 3 3
-8 -8 -7 -6 -2 -5 -7 -1 -0 -2 -6 -5 -6 -0 2 2 -3 -5 -4 -6 -9 -6 -6 -7 -5 -5 -4 -4 -5 -8 -5 0 1 0 -3 -5 -5 -8 -7 -5 -4 -0 0 1 2
-9 -9 -6 -7 -6 -6 -3 -1 -2 -3 -4 -8 -7 -2 3 2 2 -5 -7 -4 -4 -8 -11 -6 -5 -6 -6 -4 -4 -6 -4 -4 0 0 -2 -3 -2 -5 -7 -3 1 -0 -0 1 1
-9 -6 -4 -6 -5 -6 -3 -4 -3 -3 -8 -8 -8 -3 0 -1 3 2 2 3 1 2 -5 -8 -9 -10 -10 -8 -7 -4 -2 -6 -2 -2 -0 -3 -3 -1 0 1 1 -0 -0 -0 1
-7 -4 -2 -5 -6 -4 -5 -5 -6 -7 -8 -9 -5 -4 2 -0 2 4 3 3 3 1 1 -2 -4 -10 -10 -11 -11 -8 -8 -2 -3 -3 -3 -8 -5 -5 2 1 1 -0 -1 1 2
-3 -6 -6 -6 -4 -5 -5 -9 -9 -9 -6 -5 -4 -3 -3 -3 -2 4 4 3 2 2 1 2 -2 -2 -5 -6 -8 -8 -4 -4 -5 -4 -5 -6 -4 -4 -4 -2 -1 -1 1 3 5
-3 -4 -5 -6 -3 -3 -4 -5 -4 -6 -6 -4 -4 -5 -4 -3 -3 -2 -0 1 0 2 5 2 3 -1 -2 -1 -7 -11 -9 -6 -3 -3 -3 -4 -5 -1 0 -0 0 2 3 4 5
-4 -6 -4 -3 -3 -5 -6 -5 -4 -4 -5 -3 -3 -4 -4 -3 -2 -3 -3 -2 -2 1 5 3 3 -1 -1 1 -1 -1 -3 -7 -5 -3 -2 0 -0 1 1 2 3 4 4 4 5
-3 -3 -6 -3 -4 -4 -5 -4 -4 -4 -4 -5 -3 -5 -3 -3 -4 -2 -2 -3 -4 1 3 2 2 3 1 0 -0 1 -0 -2 -2 -0 -3 -3 -4 -0 0 2 3 4 6 5 5
-3 -3 -5 -4 -5 -7 -6 -5 -4 -4 -6 -5 -5 -6 -4 -1 -2 -3 -3 -3 -4 1 3 3 3 2 0 0 1 0 -0 -1 -2 -1 -0 -4 -2 -1 2 3 4 4 4 4 4
-3 -3 -4 -7 -6 -5 -7 -7 -5 -5 -7 -6 -3 -5 -6 -2 -1 -1 -2 -2 -2 -1 0 3 3 2 1 -1 1 1 -2 -2 -2 -2 -1 -2 -1 2 3 4 4 3 3 3 3
-3 -4 -4 -6 -7 -7 -8 -7 -6 -7 -9 -7 -6 -6 -5 -4 -4 -3 -2 -2 -2 -1 1 3 3 1 0 -1 -1 -0 -1 -2 -2 -0 1 1 3 2 3 3 3 3 2 2 1

GFSSW_850_dewp_114.txt.gz
Dewpoint
-18 -19 -23 -26 -29 -31 -31 -27 -27 -28 -29 -31 -33 -34 -34 -35 -35 -35 -8 -13 -10 -10 -9 -10 -14 -8 -6 -2 -2 -2 -1 -1 -2 -4 -5 -8 -8 -11 -11 -13 -14 -11 -9 2 5
-28 -27 -26 -25 -25 -23 -24 -26 -27 -28 -30 -30 -31 -34 -34 -34 -33 -27 -10 -12 -14 -13 -14 -10 -13 -13 -7 -5 -3 -2 -0 -1 -4 -5 -5 -7 -8 -9 -10 -11 -11 -12 -8 -1 3
-26 -26 -24 -18 -18 -21 -26 -26 -25 -24 -25 -25 -25 -31 -33 -32 -6 -4 -12 -16 -16 -12 -6 -4 -8 -12 -10 -7 -5 -4 -1 -3 -4 -5 -6 -6 -7 -8 -10 -9 -10 -10 -8 -5 -1
-22 -23 -20 -20 -19 -19 -20 -21 -22 -22 -23 -23 -21 -22 -25 -8 -12 -7 -10 -17 -8 -9 -3 1 -2 -6 -10 -7 -7 -4 -4 -4 -4 -5 -5 -6 -6 -7 -8 -9 -9 -10 -8 -7 -4
-22 -23 -22 -22 -21 -23 -24 -25 -26 -27 -26 -27 -25 -23 -19 -4 -7 -9 -9 -9 -10 -11 -9 -6 -4 -6 -6 -7 -7 -5 -5 -5 -4 -5 -4 -5 -5 -6 -7 -7 -7 -9 -9 -8 -5
-24 -22 -22 -23 -24 -25 -26 -28 -30 -31 -32 -31 -26 -20 -2 -3 -12 -9 -9 -10 -11 -12 -13 -14 -13 -8 -6 -6 -5 -7 -6 -5 -5 -5 -4 -4 -5 -5 -5 -6 -6 -6 -7 -8 -7
-24 -23 -22 -24 -25 -27 -29 -31 -32 -32 -31 -28 -21 -15 -2 -5 -7 -6 -7 -7 -8 -10 -12 -12 -15 -14 -10 -7 -6 -6 -4 -4 -5 -5 -4 -4 -3 -3 -4 -5 -5 -6 -6 -6 -6
-25 -24 -25 -25 -26 -28 -30 -32 -29 -20 -15 -16 -14 -6 -1 -4 -4 -7 -6 -6 -7 -8 -8 -11 -11 -15 -11 -11 -7 -6 -5 -2 -4 -6 -6 -5 -1 -3 -5 -4 -4 -5 -5 -4 -4
-25 -25 -24 -24 -26 -29 -30 -26 -12 -10 -8 -8 -3 1 -1 -6 -9 -12 -12 -9 -6 -6 -9 -10 -11 -8 -7 -9 -6 -4 -2 -2 -4 -6 -6 -5 -3 -5 -5 -5 -5 -5 -5 -4 -4
-25 -25 -25 -27 -28 -28 -19 -10 -8 -7 -4 -4 -4 -4 -7 -9 -8 -6 -7 -8 -9 -9 -4 -6 -10 -10 -8 -5 -2 -2 -2 -3 -3 -5 -5 -5 -4 -6 -7 -7 -6 -5 -5 -5 -5
-25 -26 -26 -27 -25 -12 -5 -5 -6 -5 -5 -7 -9 -9 -8 -7 -4 -5 -4 -4 -6 -9 -8 -1 -6 -7 -9 -5 -4 -5 -4 -3 -3 -5 -4 -3 -4 -6 -7 -6 -5 -4 -4 -4 -3
-26 -25 -25 -22 -16 -7 -2 -4 -4 -3 -2 -4 -5 -6 -6 -5 -5 -5 -3 -3 -4 -5 -9 2 2 -9 -10 -11 -8 -6 -5 -3 -4 -4 -1 -0 1 -3 -5 -4 -5 -5 -4 -4 -4
-24 -22 -22 -21 -5 -3 -1 -3 -4 -2 -1 -5 -8 -7 -5 -6 -7 -5 -4 -4 -5 -5 -5 3 -0 -10 -10 -13 -11 -8 -6 -3 -3 -1 2 0 1 -4 -5 -5 -5 -5 -4 -4 -3
-24 -22 -20 -19 -2 -3 -4 -4 -2 -1 1 -8 -10 -9 -9 -9 -5 -4 -5 -8 -4 -2 1 3 1 -8 -10 -11 -14 -7 -9 -6 -4 0 6 -0 1 -4 -5 -5 -7 -8 -8 -6 -4
-20 -17 -17 -6 -7 -2 -3 -2 -1 0 -1 -10 -12 -13 -12 -7 -5 -3 -3 -6 -3 1 0 4 3 -6 -10 -12 -15 -10 -10 -7 -5 -1 2 1 0 -2 -4 -3 -3 -7 -9 -9 -8
-14 -14 -15 -2 -1 -0 -2 -0 -0 3 -1 -11 -12 -13 -10 -6 -4 -2 -1 -2 -8 -1 0 2 -1 -2 -11 -15 -16 -12 -7 -4 -3 -1 3 -0 -1 -1 -2 -2 -3 -8 -12 -9 -5
-13 -13 -13 -2 -1 -2 -6 -0 3 1 -11 -10 -11 -12 -9 -6 -4 -3 -2 -4 -9 -2 1 -3 -1 -2 -7 -10 -13 -7 -4 1 4 3 3 -2 -1 -2 -6 -7 -6 -8 -9 -0 -0
-13 -12 -0 -2 -1 -0 -0 -0 1 -6 -9 -13 -12 -11 -8 -6 -5 -1 1 -4 -12 -8 -4 -7 5 1 -3 -8 -9 -5 -4 2 2 2 0 -4 -1 -3 -7 -10 -10 -5 -1 -0 -0
-3 -1 0 0 -6 -0 -0 -0 -7 -9 -12 -10 -10 -9 -8 -8 1 2 4 2 1 2 4 3 -1 -0 -2 -7 -7 -4 -2 -3 1 3 4 -2 -4 -5 -8 -5 -4 -1 -1 -1 -1
-2 -3 -3 -10 -8 1 -1 -4 -12 -13 -10 -9 -8 -6 -5 -6 -4 4 2 2 1 0 1 3 6 -0 -0 -6 -7 -5 -4 0 -0 3 5 8 -2 1 -5 -1 -0 0 -2 -2 -2
-1 -3 -1 -14 -0 1 1 -7 -8 -10 -9 -8 -7 -6 -5 -5 -4 -0 0 -1 -2 1 1 1 3 1 -5 1 -1 -2 -4 -4 -3 -2 -1 3 5 1 -2 0 4 -3 -2 4 4
-2 -2 -3 -12 1 -2 -2 -8 -8 -9 -9 -8 -7 -7 -6 -6 -1 -5 -4 -5 -5 2 3 2 4 4 -3 -11 -11 -8 -6 -4 0 -1 -4 -2 1 2 1 -2 -1 6 5 6 5
-4 -7 -5 -1 2 -6 -8 -8 -8 -8 -8 -8 -6 -8 -7 -7 -3 -0 -5 -8 -7 -2 2 2 5 5 2 -1 -10 -10 -12 -9 -5 -4 -1 2 -2 3 3 4 5 5 4 4 3
-3 2 -5 -6 -7 -6 -6 -7 -8 -8 -8 -9 -8 -5 -6 -6 -7 1 -5 -8 -7 -3 -1 1 3 6 7 7 4 -1 -12 -13 -9 -2 -3 1 2 2 6 6 4 3 3 3 2
-1 -0 -7 -1 -5 -7 -8 -7 -8 -8 -9 -9 -7 -6 -7 -4 -5 -5 -6 -6 -7 -4 -3 -0 3 3 1 -0 4 6 4 -2 -9 -6 -3 4 4 6 6 5 3 2 2 2 2
-7 -0 -6 -7 -8 -8 -7 -8 -8 -8 -8 -8 -7 -7 -7 -5 -5 -4 -5 -5 -4 -6 -4 -2 3 2 -0 -6 -0 4 4 3 4 2 -0 -1 1 5 4 3 2 2 1 1 1
-2 -4 -4 -4 -7 -7 -7 -9 -10 -10 -10 -10 -9 -8 -6 -6 -5 -5 -5 -5 -4 -2 -3 -0 3 2 -0 -3 -4 -3 -3 -3 -5 -6 -3 2 5 5 2 2 1 1 1 0 -0

GFSSW_850_dewp_117.txt.gz
Dewpoint
-28 -27 -25 -29 -32 -32 -32 -32 -33 -34 -34 -34 -34 -34 -33 -32 -31 -31 -28 -18 -13 -11 -9 -10 -9 -11 -14 -6 -1 -1 1 2 1 -1 -3 -6 -6 -7 -12 -12 -13 -13 -9 2 5
-29 -30 -31 -32 -32 -32 -33 -34 -34 -33 -33 -32 -32 -32 -33 -33 -32 -12 -11 -12 -12 -12 -12 -11 -13 -14 -12 -9 -5 -2 1 1 -2 -3 -3 -4 -5 -6 -10 -11 -12 -12 3 6 7
-29 -28 -29 -30 -32 -33 -33 -33 -32 -30 -29 -30 -31 -32 -32 -32 -13 -4 -11 -12 -13 -11 -10 -7 -4 -10 -10 -11 -9 -4 0 -1 -2 -3 -3 -4 -5 -5 -8 -9 -11 -11 -0 -1 5
-27 -28 -30 -33 -32 -32 -31 -29 -28 -28 -29 -30 -31 -29 -29 -21 -15 -6 -12 -11 -10 -11 -9 -6 1 -1 -4 -7 -11 -5 -5 -4 -3 -3 -4 -4 -4 -4 -5 -8 -10 -11 -6 -3 -5
-27 -29 -29 -28 -29 -28 -28 -27 -28 -30 -31 -31 -29 -24 -22 -7 -17 -12 -8 -8 -8 -7 -9 -9 -10 -8 -1 -4 -6 -9 -8 -7 -6 -4 -4 -4 -4 -4 -4 -5 -6 -7 -6 -6 -5
-28 -27 -28 -27 -27 -27 -27 -29 -31 -32 -32 -28 -23 -20 -12 -4 -12 -11 -10 -10 -11 -10 -9 -9 -11 -12 -14 -12 -5 -6 -7 -7 -7 -6 -5 -4 -4 -4 -4 -5 -5 -6 -6 -6 -6
-25 -26 -26 -26 -26 -26 -28 -31 -31 -31 -27 -16 -16 -16 -8 -16 -7 -9 -8 -8 -7 -6 -7 -8 -8 -8 -13 -13 -12 -6 -5 -5 -5 -7 -6 -5 -3 -3 -4 -4 -5 -5 -6 -6 -6
-26 -26 -26 -24 -25 -28 -30 -31 -28 -16 -15 -9 -10 -8 -3 -4 -6 -7 -9 -11 -12 -9 -8 -7 -8 -8 -8 -10 -13 -14 -9 -4 -5 -5 -6 -5 -2 -4 -4 -4 -5 -5 -5 -5 -5
-24 -26 -24 -24 -27 -29 -30 -27 -15 -9 -11 -5 -5 -1 0 -6 -7 -10 -6 -5 -5 -5 -9 -10 -5 -5 -8 -8 -6 -12 -7 -6 -4 -6 -5 -4 -2 -4 -4 -4 -4 -4 -4 -5 -5
-26 -25 -24 -26 -28 -27 -13 -13 -11 -8 -6 -4 -3 -2 -6 -8 -9 -8 -6 -6 -5 -4 -5 -8 -8 -2 -4 -6 -3 -7 -7 -7 -3 -5 -5 -4 -4 -5 -5 -5 -4 -4 -4 -4 -4
-25 -26 -25 -26 -23 -8 -5 -10 -8 -4 -8 -7 -9 -6 -10 -7 -6 -6 -7 -6 -4 -3 -2 -5 -7 -2 -2 -6 -8 -8 -5 -6 -5 -5 -4 -4 -4 -6 -6 -7 -6 -6 -6 -5 -5
-28 -27 -26 -25 -7 -2 -2 -5 -4 -3 -2 -8 -7 -6 -7 -7 -6 -7 -7 -5 -4 -3 -3 -2 -2 -7 -7 -1 -3 -8 -7 -5 -5 -5 -3 -3 -0 -5 -3 -5 -7 -7 -6 -6 -5
-26 -27 -27 -20 -5 -2 -2 -4 -3 -2 -1 -3 -6 -7 -8 -9 -7 -7 -4 -4 -6 -2 -2 -1 -1 -7 -6 -1 1 -7 -8 -7 -4 0 1 1 2 1 -1 -6 -6 -7 -6 -6 -4
-24 -23 -23 -19 -5 -2 -3 -3 -3 -1 -1 -3 -7 -10 -13 -12 -6 -5 -3 -7 -4 -3 -4 -0 -3 -1 -2 -2 -0 -7 -10 -10 -7 -4 6 1 3 0 0 -4 -5 -6 -6 -5 -4
-17 -17 -13 -6 -6 -1 -2 -6 -1 -1 -0 -10 -11 -14 -14 -8 -8 -6 -4 -5 -5 -3 0 -0 0 4 4 1 -3 -8 -9 -11 -8 -1 5 4 5 -0 -3 -3 -4 -5 -5 -6 -9
-14 -16 -2 -2 -0 -1 -2 -1 0 2 -0 -11 -14 -12 -10 -8 -8 -6 -2 -2 -2 -4 -2 0 -1 1 2 0 -4 -10 -9 -8 -0 4 7 2 2 0 -3 -4 -5 -5 -5 -5 -7
-15 -16 -16 -7 -0 -2 -6 0 1 3 -10 -12 -11 -10 -8 -6 -5 -4 -1 0 -0 0 -1 -5 -4 -3 0 2 -1 -9 -9 3 7 7 5 -0 1 -0 -4 -5 -5 -5 -5 -4 -4
-15 -15 -4 -3 -5 -8 -0 1 3 -7 -11 -12 -9 -8 -5 -6 -4 -2 2 1 -1 1 4 1 5 2 -0 2 -3 -7 -0 4 7 5 2 -3 2 -1 -4 -6 -6 -6 -1 -0 -1
-3 -1 -1 -5 -8 -2 1 0 -5 -11 -11 -9 -8 -4 -5 -6 -3 1 3 2 -2 -1 5 4 2 0 0 1 1 -3 -1 -1 4 3 5 -0 -4 -5 -5 -3 -2 -0 0 1 3
-2 -1 -1 -3 -9 0 0 -0 -8 -11 -10 -8 -6 -5 -3 -5 -2 -1 1 0 -1 -2 1 2 4 1 3 3 -4 -5 -4 3 6 7 8 7 1 1 1 3 4 7 5 5 5
-2 -0 -1 -5 -3 2 -1 -2 -8 -10 -10 -8 -6 -4 -5 -4 -4 1 -1 -3 -5 -0 -0 2 4 2 1 3 0 -1 -2 1 4 2 4 9 8 2 3 2 6 7 7 5 4
-1 0 -3 -17 1 1 -1 -8 -8 -9 -9 -8 -7 -6 -3 -3 -3 -1 0 -2 -6 -2 2 2 4 5 1 -0 -3 -0 1 -1 2 3 0 5 7 5 6 6 6 6 5 4 3
0 -2 -7 -6 0 -1 -5 -7 -9 -8 -9 -8 -7 -5 -3 -4 -2 -3 -1 -3 -6 -4 2 2 4 5 3 1 1 2 -2 -4 -2 0 -2 3 7 6 6 6 4 3 3 3 2
-1 -1 -3 -4 -5 -6 -5 -5 -6 -7 -8 -10 -6 -2 -4 -4 -5 -2 -2 -5 -6 -5 -4 0 3 5 4 4 5 5 4 1 -3 -0 -1 4 7 7 6 5 4 3 2 1 1
-1 -1 -6 -1 -2 -8 -8 -6 -5 -7 -8 -9 -6 -6 -6 -4 -4 -1 -3 -4 -5 -6 -3 -1 3 3 2 2 5 5 4 3 3 0 -1 4 7 7 5 5 3 2 1 0 0
-7 0 -3 -3 -8 -7 -6 -7 -6 -8 -8 -7 -6 -6 -7 -5 -4 -2 -3 -3 -2 -4 -2 -1 2 3 2 0 1 3 3 2 2 2 2 4 8 5 4 3 1 1 0 -0 -0
-2 -3 -4 -4 -5 -4 -4 -8 -7 -8 -8 -8 -7 -7 -4 -4 -4 -4 -4 -4 -4 -3 -2 0 2 3 3 1 1 6 6 5 4 5 4 6 6 2 2 1 0 -0 -1 -1 -1

GFSSW_850_dewp_120.txt.gz
Dewpoint
-28 -29 -30 -32 -32 -32 -32 -33 -34 -34 -33 -32 -31 -30 -30 -30 -31 -31 -13 -11 -13 -14 -13 -12 -14 -11 -9 -13 -6 -2 1 4 4 2 1 -3 -3 -5 -5 -6 -11 -9 -9 1 6
-29 -30 -31 -32 -32 -32 -33 -34 -33 -32 -30 -29 -29 -30 -32 -33 -31 -10 -11 -11 -11 -10 -10 -9 -10 -10 -12 -13 -9 -4 1 2 -0 -0 -0 -2 -3 -4 -5 -6 -8 -2 -10 4 7
-30 -31 -31 -31 -32 -33 -34 -32 -31 -28 -28 -30 -32 -33 -34 -33 -16 -6 -10 -10 -8 -9 -9 -8 -1 1 -9 -12 -12 -7 -2 -1 -1 -1 -2 -2 -2 -3 -4 -4 -6 -1 1 4 7
-31 -32 -32 -33 -33 -32 -31 -30 -28 -29 -31 -32 -33 -33 -33 -28 -17 -6 -10 -9 -8 -8 -9 -9 -7 -0 -5 -6 -10 -10 -11 -8 -5 -4 -2 -2 -3 -3 -4 -4 -5 -7 4 6 8
-29 -31 -32 -31 -31 -30 -29 -28 -28 -31 -32 -31 -28 -25 -24 -15 -27 -17 -15 -9 -9 -9 -10 -9 -8 -8 -10 -3 -6 -4 -8 -10 -10 -8 -6 -4 -3 -3 -4 -4 -4 -5 2 8 8
-28 -31 -31 -30 -29 -29 -27 -28 -30 -31 -27 -19 -16 -15 -13 -8 -18 -11 -9 -11 -11 -9 -7 -8 -8 -8 -8 -10 -11 -10 -10 -7 -7 -9 -9 -6 -6 -4 -4 -4 -4 -4 -5 -1 6
-28 -29 -29 -29 -28 -26 -28 -29 -31 -27 -14 -12 -10 -11 -10 -14 -8 -10 -11 -10 -7 -6 -10 -8 -8 -7 -7 -7 -8 -10 -10 -12 -10 -6 -6 -7 -5 -5 -6 -5 -4 -4 -5 -6 -6
-28 -28 -28 -28 -26 -27 -29 -29 -27 -15 -11 -8 -6 -5 -8 -8 -9 -11 -10 -10 -8 -6 -5 -5 -7 -10 -8 -7 -8 -7 -8 -8 -12 -10 -7 -5 -3 -6 -6 -5 -4 -4 -4 -5 -5
-27 -27 -28 -26 -26 -28 -25 -17 -18 -13 -9 -7 -5 -2 -6 -6 -9 -8 -9 -9 -7 -6 -6 -5 -5 -9 -6 -4 -4 -7 -5 -7 -9 -11 -7 -5 -3 -5 -6 -5 -4 -4 -4 -5 -5
-28 -28 -27 -26 -27 -17 -9 -11 -10 -8 -7 -5 -3 -3 -9 -11 -9 -8 -9 -7 -6 -6 -4 -4 -6 -7 -5 -3 -1 -6 -6 -7 -8 -12 -9 -6 -4 -5 -5 -5 -4 -4 -4 -5 -5
-28 -28 -27 -26 -11 -2 -6 -10 -16 -9 -10 -12 -8 -9 -11 -9 -9 -10 -7 -5 -5 -4 -2 -4 -3 -2 -4 -6 -4 -4 -4 -5 -8 -9 -8 -10 -5 -5 -6 -5 -4 -4 -4 -4 -4
-28 -29 -26 -25 -3 -2 -4 -6 -5 -7 -3 -10 -6 -6 -8 -8 -6 -10 -6 -3 -4 -3 -5 -2 0 -2 -4 -4 -6 -6 -2 0 -5 -9 -8 -7 -7 -6 -6 -6 -5 -5 -5 -5 -5
-28 -27 -27 -20 -3 -2 -3 -3 -4 -4 -2 -7 -7 -7 -10 -9 -9 -9 -5 -4 -6 -4 -2 0 -1 -5 -3 -2 -2 -3 -4 -3 -1 -8 -9 0 2 -1 -1 -5 -6 -6 -6 -7 -6
-24 -26 -25 -15 -3 -2 -3 -3 -6 -3 -1 -2 -5 -9 -12 -13 -7 -10 -7 -5 -5 -3 -3 -1 -4 -4 -4 -2 -1 2 -5 -4 -2 -5 -3 2 5 0 -1 -0 -4 -6 -6 -6 -7
-20 -19 -16 -12 -3 -2 -2 -3 -3 -1 -2 -7 -13 -16 -13 -8 -9 -9 -5 -4 -3 -3 -2 -2 -1 2 2 1 2 3 -2 -4 -2 -6 -6 -0 7 4 -1 -1 -1 -5 -6 -6 -5
-16 -18 -3 -2 -2 -1 -3 -2 -0 -0 -2 -10 -14 -11 -9 -9 -8 -7 -3 -2 -2 -3 -3 -3 -5 -2 -2 -1 -0 1 -2 -1 -4 -4 -2 -3 5 3 -2 -2 -3 -6 -6 -6 1
-15 -15 -4 -4 -1 -4 -8 0 1 -1 -11 -10 -11 -7 -7 -6 -5 -3 -0 -1 0 3 1 1 -1 -0 0 2 1 1 -0 1 1 2 5 2 6 3 -2 -5 -5 -4 -4 -3 3
-12 -15 -11 -5 -10 -5 -0 -0 -0 -8 -10 -11 -9 -6 -5 -6 -5 -2 1 2 -4 -0 3 4 2 -0 -2 4 4 2 -1 -1 3 5 4 3 4 -0 -4 -5 -5 -4 1 4 2
-3 -9 -5 -8 -12 -1 -0 0 -5 -11 -10 -8 -7 -5 -5 -6 -5 -1 0 1 -1 -2 3 4 2 -2 -3 -0 3 -3 -3 -6 2 4 3 0 -3 -6 1 3 -1 4 4 4 4
-2 -1 -2 -5 -3 0 -2 -0 -8 -10 -10 -9 -5 -5 -3 -4 -4 -4 -1 -2 -1 -3 -0 1 4 1 1 2 1 0 -3 2 4 6 5 7 3 7 8 8 6 5 4 3 3
-3 -1 -2 -3 -4 0 -2 -1 -8 -10 -9 -8 -7 -5 -4 -2 -3 -1 -0 -2 -5 -3 -1 1 4 2 1 5 4 3 1 4 4 5 7 8 9 7 7 7 6 4 3 3 2
-1 -0 -2 -7 -0 -0 -2 -3 -9 -9 -9 -8 -7 -5 -3 -2 -3 -2 -1 -1 -4 -5 -1 1 5 5 1 -1 1 1 4 3 4 7 6 6 7 6 6 5 5 4 3 3 2
-0 -3 -3 -4 -1 -1 -1 -6 -7 -7 -9 -8 -7 -4 -4 -4 -3 -3 -2 -4 -5 -4 -3 -0 3 4 1 -0 0 4 3 3 4 4 5 5 8 5 4 3 2 3 2 2 1
-2 -2 -3 -1 -2 -6 -6 -5 -6 -8 -8 -8 -6 -5 -6 -5 -5 -3 -1 -3 -5 -5 -4 -1 2 5 4 4 3 4 3 3 4 5 3 5 7 6 5 3 2 2 1 1 0
-2 -1 -4 -3 -4 -8 -8 -7 -6 -5 -8 -9 -6 -6 -6 -5 -4 -2 -3 -4 -5 -5 -3 -1 2 2 2 2 5 5 5 4 4 4 2 5 7 5 4 3 1 0 1 -0 -0
-4 -2 -3 -3 -9 -8 -6 -7 -7 -9 -9 -8 -6 -6 -7 -5 -4 -2 -3 -4 -3 -3 -2 -2 1 2 2 1 5 5 4 4 4 5 6 6 6 4 3 1 0 -0 -0 -1 -1
-2 -3 -4 -4 -4 -4 -4 -7 -6 -6 -8 -8 -7 -7 -5 -5 -5 -5 -5 -5 -4 -3 -2 -0 1 2 3 1 4 4 4 4 3 3 5 6 5 2 1 -0 -1 -1 -1 -1 -2

GFSSW_850_dewp_123.txt.gz
Dewpoint
-24 -29 -30 -31 -33 -33 -33 -33 -34 -33 -32 -30 -28 -28 -30 -31 -32 -12 -11 -9 -9 -10 -10 -11 -12 -11 -11 -10 -10 -2 2 3 2 2 -0 -2 -2 -3 -4 -3 -4 -6 -6 0 5
-28 -30 -31 -32 -32 -32 -33 -34 -33 -31 -30 -28 -28 -30 -32 -33 -31 -12 -10 -9 -9 -9 -10 -10 -7 -4 -8 -12 -10 -6 -1 -0 0 0 1 0 -0 -1 -3 -3 -4 -4 -5 -2 7
-29 -30 -31 -32 -32 -33 -34 -33 -31 -28 -28 -28 -30 -32 -32 -32 -19 -7 -9 -9 -9 -9 -10 -9 -8 -1 -4 -11 -12 -9 -6 -6 -2 -0 -0 -1 -1 -2 -2 -2 -2 -3 -5 2 8
-29 -31 -32 -32 -34 -34 -33 -31 -29 -28 -29 -31 -32 -32 -31 -29 -20 -6 -8 -11 -10 -10 -10 -10 -10 -8 -3 -5 -7 -10 -12 -11 -9 -5 -4 -4 -3 -2 -2 -3 -3 -3 -4 0 10
-30 -32 -32 -33 -33 -32 -31 -29 -27 -29 -31 -32 -30 -27 -23 -22 -24 -16 -17 -12 -10 -11 -9 -9 -9 -8 -9 -9 -8 -9 -8 -6 -7 -8 -10 -10 -8 -5 -4 -4 -3 -3 -4 -3 8
-32 -32 -32 -32 -31 -31 -29 -27 -28 -30 -30 -22 -18 -16 -13 -17 -17 -12 -11 -13 -8 -7 -8 -8 -8 -7 -7 -7 -8 -9 -8 -9 -10 -10 -12 -9 -8 -9 -8 -7 -6 -4 -4 -4 5
-31 -32 -32 -31 -30 -29 -26 -27 -29 -26 -22 -13 -11 -8 -13 -10 -10 -11 -11 -11 -9 -7 -6 -6 -7 -7 -8 -7 -8 -8 -7 -9 -10 -12 -11 -12 -7 -7 -9 -8 -7 -5 -4 -4 -4
-31 -31 -30 -29 -29 -26 -26 -27 -24 -17 -13 -9 -8 -7 -10 -10 -12 -11 -9 -9 -8 -8 -7 -6 -6 -5 -8 -9 -6 -6 -7 -8 -13 -12 -12 -9 -8 -10 -7 -7 -7 -6 -6 -5 -4
-30 -30 -28 -28 -27 -26 -26 -22 -14 -12 -10 -7 -7 -5 -9 -11 -12 -12 -10 -8 -7 -6 -7 -5 -5 -4 -7 -5 -4 -4 -4 -7 -9 -13 -12 -11 -10 -12 -10 -7 -6 -6 -6 -5 -5
-26 -27 -28 -26 -26 -23 -18 -13 -7 -7 -7 -5 -4 -3 -10 -12 -10 -11 -10 -7 -6 -6 -6 -4 -4 -6 -5 -5 -4 -8 -6 -8 -7 -10 -10 -9 -9 -10 -11 -9 -6 -6 -6 -5 -5
-26 -28 -29 -26 -21 -11 -10 -8 -9 -5 -6 -10 -12 -10 -11 -10 -9 -12 -9 -5 -5 -5 -2 -4 -3 -2 -3 -6 -6 -6 -5 -4 -5 -6 -5 -6 -8 -9 -10 -9 -10 -5 -5 -5 -4
-25 -28 -28 -25 -5 -4 -6 -11 -10 -10 -10 -12 -10 -10 -10 -9 -7 -11 -8 -4 -4 -2 -5 -4 -1 -5 -4 -4 -3 -3 -3 -3 -5 -7 -5 -4 -4 -8 -10 -9 -10 -8 -6 -5 -4
-26 -28 -26 -18 -2 -3 -5 -6 -7 -11 -6 -9 -8 -8 -9 -8 -7 -10 -8 -5 -3 -3 -4 -3 -4 -4 -4 -3 -2 -1 -0 -1 -2 -3 -6 -4 -2 -7 -9 -8 -7 -9 -6 -5 -5
-25 -28 -26 -10 -4 -3 -3 -4 -9 -5 -1 -2 -4 -8 -10 -11 -8 -10 -7 -3 -5 -3 -4 -2 -4 -4 -4 -3 -4 -0 -3 -1 4 2 1 -5 -1 -4 -4 -2 -2 -7 -7 -6 -6
-26 -25 -23 -7 -3 -3 -3 -5 -4 -3 -5 -5 -10 -15 -11 -9 -9 -9 -8 -3 -3 -3 -3 -1 -1 -0 1 0 -2 1 -0 3 1 -1 -2 -1 1 -1 -2 1 -1 -4 -6 -6 -5
-19 -20 -9 -7 -1 -2 -5 -2 -1 1 -2 -10 -14 -11 -8 -9 -8 -8 -5 -4 -2 -2 -3 -2 -4 -4 -2 -3 -1 1 2 1 -0 0 2 -1 -0 0 0 -1 -2 -3 -4 4 4
-17 -13 -5 -3 -2 -2 -6 -0 0 -1 -11 -10 -12 -8 -6 -7 -6 -4 -1 -0 -1 2 -0 -0 1 -3 -3 2 1 2 1 2 2 3 2 -3 -1 -2 -3 0 0 1 5 5 5
-15 -14 -3 -2 -2 -9 -1 -1 -0 -6 -10 -11 -9 -7 -6 -6 -6 -3 -1 -0 -3 -1 1 3 2 0 -1 2 2 4 -0 1 2 5 3 1 1 3 2 -3 3 4 5 5 5
-14 -12 -13 -4 -7 -1 -0 0 -3 -9 -10 -8 -7 -5 -5 -6 -6 -3 -1 0 -2 -3 2 2 2 -3 -2 -1 2 2 4 -1 -1 4 5 4 2 5 5 5 5 5 4 3 3
-10 -4 -3 -6 -5 0 -1 -3 -8 -10 -10 -9 -5 -5 -4 -5 -3 -6 -2 -3 -3 -5 -3 2 3 -1 -0 2 2 3 -0 2 3 6 6 5 6 8 7 5 4 3 3 2 2
-1 -1 -2 -2 0 -0 -1 -2 -8 -10 -10 -8 -7 -6 -5 -2 -3 -3 -1 -2 -4 -5 -5 -0 3 1 0 5 5 4 6 5 4 6 7 7 8 6 6 5 4 3 2 1 1
-1 -1 -1 -4 0 -1 -0 -2 -9 -9 -9 -8 -8 -6 -3 -3 -4 -4 -2 -2 -4 -4 -2 -3 2 3 1 1 1 2 5 5 6 6 6 7 8 6 5 4 3 3 2 1 0
-2 -1 -1 -2 1 1 -1 -6 -7 -8 -9 -8 -8 -3 -5 -5 -4 -4 -3 -4 -4 -4 -3 -2 1 3 -0 -0 -1 3 3 4 5 6 7 7 7 3 3 3 2 2 1 0 0
-2 -2 -3 -3 -1 -5 -6 -5 -6 -7 -8 -8 -5 -7 -7 -6 -6 -5 -5 -3 -5 -4 -3 -2 1 1 1 2 4 5 4 4 5 6 5 7 6 3 2 1 1 -0 -0 -1 -1
-2 -2 -3 -1 -3 -6 -7 -7 -6 -6 -9 -9 -6 -7 -7 -6 -5 -4 -3 -3 -5 -5 -3 -2 1 1 0 1 3 5 5 5 4 5 6 7 5 3 2 1 -0 -1 -0 -1 -2
-2 -2 -4 -4 -8 -8 -7 -7 -7 -9 -9 -8 -7 -7 -8 -6 -6 -4 -3 -3 -3 -4 -3 -2 1 1 1 1 3 1 2 2 2 3 6 4 3 2 0 -1 -1 -1 -1 -1 -2
-2 -3 -5 -3 -5 -5 -4 -6 -6 -7 -7 -7 -7 -6 -5 -5 -6 -4 -4 -4 -4 -3 -2 -1 1 2 2 1 5 2 2 3 2 2 4 5 3 1 -0 -2 -2 -2 -2 -3 -3

GFSSW_850_dewp_126.txt.gz
Dewpoint
-16 -20 -27 -30 -32 -33 -33 -33 -34 -34 -32 -31 -29 -28 -29 -32 -28 -13 -13 -9 -9 -10 -12 -14 -14 -14 -13 -11 -9 -1 2 4 2 1 -0 -3 -2 -2 -2 -2 -2 -3 -5 -4 -4
-16 -23 -30 -31 -32 -33 -33 -34 -34 -32 -30 -29 -28 -29 -31 -32 -21 -12 -9 -8 -10 -12 -15 -18 -20 -12 -7 -12 -10 -5 -2 -3 -1 -1 -0 -1 -0 -0 -1 -1 -2 -2 -2 -3 -4
-17 -26 -30 -32 -32 -32 -33 -34 -32 -31 -29 -28 -29 -30 -31 -31 -12 -8 -9 -9 -10 -13 -13 -12 -9 -4 -1 -9 -12 -9 -6 -8 -6 -6 -3 -1 -3 -3 -2 -1 -2 -2 -2 -4 -3
-19 -28 -31 -32 -32 -33 -33 -32 -31 -29 -28 -28 -29 -31 -30 -29 -21 -6 -10 -12 -12 -12 -15 -14 -12 -11 -7 -5 -6 -5 -9 -9 -7 -8 -10 -9 -9 -9 -9 -7 -4 -3 -3 -3 -3
-21 -28 -31 -33 -33 -34 -32 -31 -29 -28 -28 -29 -30 -29 -24 -24 -22 -18 -15 -13 -13 -12 -12 -10 -8 -8 -8 -8 -8 -8 -9 -9 -9 -10 -10 -11 -11 -9 -9 -9 -9 -8 -7 -5 -3
-23 -27 -30 -31 -33 -33 -32 -29 -27 -28 -29 -29 -28 -22 -20 -18 -16 -13 -13 -13 -10 -9 -7 -7 -7 -8 -7 -7 -8 -9 -7 -8 -8 -9 -10 -11 -12 -12 -12 -11 -9 -9 -8 -7 -6
-23 -24 -30 -31 -32 -31 -30 -27 -27 -27 -27 -24 -17 -14 -16 -10 -11 -11 -10 -9 -9 -9 -8 -7 -6 -5 -6 -8 -9 -7 -6 -9 -11 -12 -12 -12 -12 -11 -13 -13 -11 -10 -9 -8 -7
-17 -22 -29 -31 -31 -31 -28 -26 -25 -23 -19 -17 -11 -12 -13 -12 -11 -11 -10 -9 -7 -7 -7 -7 -6 -5 -6 -7 -7 -6 -6 -5 -13 -14 -14 -14 -14 -16 -16 -12 -10 -10 -8 -7 -8
-14 -25 -28 -28 -30 -30 -27 -20 -18 -13 -14 -11 -9 -10 -11 -11 -12 -12 -10 -9 -7 -6 -6 -6 -6 -4 -6 -5 -5 -5 -7 -6 -9 -13 -12 -12 -11 -14 -12 -11 -10 -10 -11 -9 -7
-20 -25 -28 -27 -29 -27 -22 -14 -9 -8 -8 -8 -7 -7 -10 -12 -11 -12 -10 -8 -6 -5 -5 -5 -4 -5 -5 -5 -4 -8 -6 -7 -7 -9 -9 -8 -7 -8 -8 -10 -11 -11 -10 -10 -9
-20 -24 -26 -27 -27 -22 -12 -8 -6 -4 -5 -9 -10 -10 -11 -11 -11 -11 -10 -7 -5 -5 -3 -4 -3 -2 -4 -5 -6 -6 -5 -4 -6 -7 -6 -5 -5 -6 -7 -7 -8 -9 -11 -11 -10
-11 -23 -25 -27 -23 -10 -8 -9 -12 -11 -14 -12 -12 -12 -11 -10 -10 -11 -9 -6 -4 -3 -4 -4 -1 -4 -5 -5 -4 -4 -3 -2 -4 -5 -4 -4 -3 -4 -6 -7 -7 -8 -9 -12 -11
-9 -20 -25 -25 -8 -6 -6 -10 -12 -15 -10 -9 -8 -8 -8 -8 -9 -10 -7 -5 -3 -2 -3 -2 -3 -5 -4 -3 -1 -2 -1 -2 -2 -3 -4 -1 1 -1 -4 -7 -7 -8 -9 -11 -11
-6 -14 -23 -22 -4 -5 -5 -6 -13 -7 -2 -3 -4 -7 -9 -9 -9 -9 -7 -3 -5 -3 -4 -2 -4 -4 -4 -3 -4 -1 -4 -3 -2 1 4 -2 2 -3 -5 -7 -8 -9 -10 -10 -7
-6 -18 -22 -19 -5 -4 -5 -10 -5 -3 -11 -4 -7 -9 -10 -9 -9 -9 -6 -3 -2 -2 -2 -1 -1 -0 0 -1 -3 -1 -2 1 1 4 2 -1 1 -4 -6 -5 -6 -7 -6 -7 -5
-15 -22 -23 -9 -3 -4 -7 -3 -2 -2 -7 -10 -13 -10 -8 -8 -8 -8 -5 -4 -3 -2 -2 -2 -3 -3 -2 -3 -3 -3 1 2 2 1 3 -3 -1 -3 -4 -6 -2 2 5 4 1
-13 -15 -14 -7 -3 -3 -6 -1 -2 -5 -12 -11 -11 -8 -7 -7 -6 -4 -1 -3 -2 0 -2 -1 -0 -2 -4 0 -0 1 0 2 1 2 0 -3 2 -2 -4 -3 -4 2 5 4 4
-13 -12 -7 -4 -2 -3 -3 -1 -3 -5 -10 -11 -9 -7 -6 -6 -6 -5 -2 -3 -3 -2 0 0 -1 -1 -1 0 0 2 4 2 2 1 1 -1 4 3 5 5 5 4 4 3 2
-12 -8 -1 -1 -2 -7 -1 -1 -3 -9 -10 -8 -7 -5 -5 -6 -5 -4 -2 -1 -2 -4 -2 2 -0 -5 -5 -3 -0 4 4 -0 1 1 3 2 3 4 5 5 4 3 2 2 2
-12 -9 -5 -1 -6 -1 -2 -4 -8 -9 -9 -8 -6 -6 -4 -5 -4 -6 -3 -3 -4 -5 -5 -2 1 -3 -1 2 2 3 2 4 1 4 7 5 6 4 6 4 3 2 2 1 1
-5 -3 -2 -4 -1 1 -2 -2 -9 -10 -10 -7 -6 -6 -5 -3 -3 -3 -2 -3 -4 -4 -4 -4 1 -1 -1 4 4 4 4 5 6 6 7 7 7 3 4 4 3 2 1 0 -0
-1 0 -1 -0 -0 -1 -1 -3 -10 -9 -9 -7 -8 -5 -3 -4 -5 -4 -2 -4 -4 -4 -3 -4 1 2 -1 -3 1 2 5 5 6 6 5 6 5 2 2 1 1 1 1 0 -1
-1 -0 -1 -0 0 0 -1 -5 -7 -8 -9 -8 -6 -4 -6 -6 -5 -4 -4 -6 -5 -4 -4 -2 1 2 -2 -3 -2 2 1 4 5 6 7 7 4 1 1 0 -1 -1 -1 -1 -2
-4 -2 -2 -2 -1 -3 -4 -5 -5 -7 -8 -7 -6 -8 -7 -7 -7 -6 -6 -5 -6 -5 -4 -1 1 -1 -1 -1 4 3 4 5 4 6 6 5 3 1 1 0 -1 -1 -1 -2 -2
-2 -3 -5 -2 -2 -5 -6 -6 -6 -5 -9 -8 -7 -8 -8 -6 -6 -4 -4 -4 -5 -4 -4 -2 1 0 0 -0 4 2 2 2 3 5 6 4 2 1 0 -0 -1 -2 -2 -2 -3
-2 -3 -4 -4 -5 -6 -6 -7 -7 -9 -9 -7 -7 -7 -7 -6 -6 -5 -5 -4 -3 -4 -4 -3 0 0 1 2 5 2 1 -0 -0 2 5 3 2 1 -1 -2 -2 -2 -3 -3 -4
-3 -4 -6 -3 -6 -4 -5 -7 -7 -7 -7 -7 -7 -6 -5 -5 -5 -5 -4 -4 -4 -3 -2 -2 0 2 2 0 4 3 2 3 1 1 2 2 2 0 -2 -3 -3 -3 -4 -4 -5

GFSSW_850_dewp_129.txt.gz
Dewpoint
-10 -13 -16 -23 -30 -31 -33 -33 -33 -34 -34 -33 -31 -29 -30 -31 -28 -16 -14 -11 -11 -12 -14 -17 -20 -17 -15 -11 -9 -1 -2 1 -1 -1 -2 -2 -2 -2 -1 -1 -2 -2 -3 -3 -2
-9 -13 -17 -26 -30 -32 -33 -33 -34 -34 -33 -32 -30 -29 -30 -30 -19 -13 -11 -10 -11 -12 -14 -19 -22 -22 -11 -12 -10 -7 -3 -4 -3 -2 -1 -4 -4 -4 -3 -2 -2 -2 -2 -3 -3
-6 -12 -18 -27 -30 -31 -32 -34 -34 -33 -32 -32 -29 -29 -30 -29 -13 -10 -9 -10 -13 -16 -18 -17 -13 -13 -2 -7 -11 -8 -8 -7 -8 -6 -9 -9 -9 -8 -8 -7 -4 -2 -3 -3 -3
-5 -11 -18 -27 -29 -31 -33 -33 -32 -32 -32 -30 -29 -30 -29 -27 -19 -8 -12 -13 -12 -13 -14 -13 -13 -11 -8 -6 -7 -7 -7 -9 -8 -9 -9 -10 -11 -11 -10 -10 -9 -9 -9 -8 -6
-3 -9 -18 -27 -28 -30 -33 -33 -31 -30 -30 -29 -29 -29 -23 -24 -18 -19 -13 -11 -10 -10 -11 -11 -10 -8 -9 -8 -8 -8 -9 -9 -9 -9 -10 -11 -12 -12 -14 -15 -18 -18 -15 -11 -8
0 -9 -17 -27 -29 -31 -31 -31 -30 -29 -28 -28 -28 -27 -22 -21 -16 -13 -12 -12 -12 -10 -8 -7 -6 -6 -8 -7 -8 -8 -8 -9 -9 -10 -10 -10 -12 -13 -16 -17 -15 -14 -13 -12 -10
-1 -3 -18 -25 -29 -30 -30 -28 -28 -28 -27 -27 -27 -20 -17 -16 -13 -11 -10 -9 -8 -7 -7 -7 -6 -6 -6 -6 -7 -7 -7 -9 -11 -12 -12 -13 -14 -14 -15 -12 -11 -11 -11 -11 -9
4 -2 -18 -18 -29 -30 -28 -28 -27 -25 -24 -24 -21 -16 -11 -12 -11 -11 -9 -8 -8 -7 -6 -6 -6 -5 -5 -7 -7 -7 -7 -9 -13 -12 -13 -13 -13 -15 -14 -12 -11 -11 -10 -11 -11
4 -3 -14 -21 -30 -29 -26 -25 -21 -21 -19 -18 -16 -17 -10 -11 -12 -11 -10 -9 -8 -6 -6 -6 -6 -5 -6 -5 -6 -7 -10 -8 -9 -12 -11 -12 -11 -13 -13 -10 -8 -8 -8 -9 -10
3 3 -12 -26 -29 -27 -24 -15 -11 -12 -12 -11 -11 -12 -10 -11 -11 -11 -10 -9 -6 -6 -5 -4 -4 -4 -5 -5 -9 -9 -7 -8 -7 -9 -9 -8 -7 -8 -8 -7 -7 -7 -7 -8 -9
3 0 -7 -26 -27 -25 -14 -9 -9 -8 -8 -10 -10 -11 -11 -11 -11 -10 -9 -7 -5 -5 -4 -4 -3 -4 -5 -5 -6 -5 -5 -5 -7 -8 -6 -5 -5 -5 -6 -6 -6 -6 -7 -7 -7
5 -0 -11 -24 -27 -17 -8 -9 -13 -13 -14 -8 -11 -12 -11 -11 -11 -10 -8 -6 -4 -3 -4 -3 -2 -4 -4 -5 -4 -4 -3 -3 -5 -5 -3 -3 -3 -4 -5 -5 -5 -5 -5 -5 -6
3 -2 -15 -12 -25 -14 -7 -8 -13 -19 -13 -10 -10 -10 -9 -9 -10 -9 -7 -4 -3 -2 -3 -2 -3 -5 -4 -4 -3 -3 -2 -2 -2 -3 -2 -2 -3 -7 -9 -8 -9 -8 -6 -6 -6
3 -8 -12 -22 -13 -8 -7 -9 -14 -18 -3 -4 -6 -7 -9 -9 -9 -9 -6 -4 -4 -2 -3 -2 -4 -4 -4 -3 -4 -0 -4 -3 -2 1 3 -1 2 -5 -9 -8 -8 -9 -8 -8 -8
2 -6 -15 -18 -7 -5 -8 -7 -14 -7 -11 -5 -6 -8 -10 -9 -9 -9 -5 -4 -2 -2 -2 -2 -1 -1 1 -1 -3 -1 -3 -2 -1 2 3 -2 1 -6 -6 -5 -6 -6 -3 3 3
-3 -3 -10 -15 -6 -7 -7 -8 -6 -1 -11 -8 -12 -9 -8 -8 -8 -7 -6 -4 -3 -2 -2 -2 -3 -3 -2 -3 -2 -3 -0 1 1 3 2 -1 -1 -3 -2 4 4 4 4 4 3
-2 -1 -10 -11 -8 -6 -5 -2 -0 -6 -11 -12 -8 -7 -7 -6 -6 -4 -3 -4 -3 -4 -4 -3 -3 -2 -3 -1 -1 1 2 2 0 1 -2 -5 -1 -2 5 4 3 3 2 2 1
0 -8 -12 -2 -2 -3 -2 0 -4 -6 -9 -11 -7 -7 -5 -6 -5 -5 -2 -3 -4 -3 -2 -3 -8 -2 -1 -0 -1 -0 3 3 5 1 1 -2 1 3 1 2 1 1 -0 1 1
-7 -10 -9 -3 -2 -3 -1 0 -6 -7 -10 -7 -6 -6 -5 -6 -3 -4 -2 -2 -3 -5 -5 -2 -4 -4 -7 -2 0 5 5 2 4 1 3 0 3 3 -1 1 1 0 -0 -0 -0
-9 -5 -1 -1 -2 -3 -0 -2 -8 -9 -9 -8 -6 -6 -4 -5 -4 -3 -3 -3 -3 -5 -5 -4 -1 -5 -3 -0 2 3 2 5 4 5 4 2 5 3 2 1 1 0 -0 -1 -1
-3 -2 -1 -1 -4 -1 1 -3 -8 -10 -9 -7 -6 -5 -5 -3 -3 -3 -2 -3 -4 -5 -5 -4 -2 -2 -2 1 -1 2 1 3 4 5 6 6 4 2 1 1 0 -0 -1 -2 -2
-1 0 -1 -1 0 -1 -0 -4 -10 -8 -8 -7 -5 -4 -3 -4 -4 -4 -2 -3 -4 -5 -4 -4 -1 0 -3 -4 -2 -2 1 3 5 5 4 5 3 2 1 0 -1 -1 -2 -2 -3
-0 -0 0 1 1 0 -1 -4 -8 -7 -7 -7 -3 -5 -5 -5 -4 -5 -4 -5 -5 -5 -4 -2 1 1 -5 -1 -2 1 0 3 5 6 6 6 4 1 0 -1 -1 -2 -2 -3 -3
-2 0 -1 -0 -1 -1 -1 -4 -4 -8 -7 -6 -6 -7 -7 -7 -7 -5 -6 -5 -5 -5 -4 -1 0 1 1 -0 2 2 0 1 2 6 6 4 2 0 -0 -1 -2 -2 -3 -3 -4
-4 -3 -3 0 -0 -4 -5 -4 -4 -6 -8 -8 -7 -7 -7 -6 -6 -5 -4 -4 -5 -3 -3 -3 -0 -0 -1 -1 2 3 1 1 2 3 2 1 0 0 -1 -2 -2 -3 -4 -4 -5
-2 -3 -3 -3 -3 -5 -5 -5 -5 -8 -7 -6 -5 -6 -7 -6 -7 -5 -5 -4 -4 -4 -4 -3 -0 -0 0 1 3 3 1 -1 1 1 2 2 0 0 -2 -3 -4 -4 -4 -5 -5
-4 -4 -5 -4 -5 -4 -4 -6 -6 -5 -4 -7 -6 -5 -6 -6 -6 -6 -6 -5 -4 -4 -2 -2 -0 1 1 -0 4 3 1 2 1 -0 1 1 1 -0 -3 -4 -4 -5 -5 -5 -6

GFSSW_850_dewp_132.txt.gz
Dewpoint
0 -6 -9 -12 -21 -29 -32 -33 -33 -34 -34 -33 -32 -30 -30 -31 -29 -20 -8 -14 -13 -14 -16 -15 -12 -9 -13 -12 -7 -4 -7 -6 -7 -4 -5 -5 -3 -5 -4 -3 -3 -2 -2 -2 -2
3 -2 -7 -12 -21 -30 -32 -33 -33 -34 -33 -33 -31 -29 -30 -30 -23 -9 -13 -13 -12 -13 -11 -12 -13 -10 -15 -15 -12 -10 -13 -15 -11 -8 -6 -5 -7 -9 -10 -11 -10 -9 -7 -2 -1
5 0 -5 -11 -20 -29 -32 -33 -34 -34 -33 -32 -30 -29 -29 -28 -9 -9 -10 -10 -17 -20 -19 -13 -12 -10 -12 -12 -14 -15 -14 -16 -11 -8 -8 -10 -12 -14 -14 -14 -15 -13 -7 -6 -9
7 4 -2 -9 -19 -29 -32 -33 -34 -33 -33 -32 -29 -29 -27 -26 -17 -8 -15 -15 -13 -12 -10 -11 -12 -14 -15 -13 -8 -10 -13 -12 -14 -10 -11 -13 -14 -16 -17 -18 -18 -16 -14 -13 -14
8 6 1 -8 -16 -28 -31 -33 -34 -33 -32 -30 -29 -28 -22 -18 -11 -18 -15 -12 -10 -8 -9 -10 -11 -11 -14 -13 -12 -12 -14 -13 -12 -12 -13 -14 -15 -16 -17 -17 -16 -16 -16 -15 -14
8 7 4 -5 -16 -27 -31 -33 -33 -32 -31 -30 -28 -27 -19 -19 -20 -14 -12 -11 -8 -8 -7 -8 -7 -8 -10 -11 -11 -10 -11 -11 -12 -13 -13 -13 -15 -15 -17 -18 -16 -15 -14 -13 -12
9 8 6 -2 -16 -25 -29 -32 -32 -32 -30 -28 -26 -21 -15 -15 -13 -11 -10 -9 -8 -7 -7 -6 -6 -7 -7 -8 -7 -8 -9 -13 -14 -14 -16 -15 -16 -17 -17 -16 -15 -16 -15 -15 -14
9 9 8 2 -15 -18 -29 -31 -31 -30 -29 -26 -22 -17 -10 -12 -11 -10 -9 -8 -9 -7 -6 -6 -6 -6 -6 -6 -8 -8 -10 -12 -14 -15 -15 -14 -14 -18 -15 -15 -14 -15 -13 -10 -10
9 9 8 7 -14 -18 -30 -30 -29 -25 -24 -21 -18 -15 -10 -12 -10 -11 -10 -8 -7 -6 -6 -6 -5 -5 -5 -7 -10 -9 -14 -13 -13 -13 -13 -12 -10 -12 -12 -11 -10 -9 -10 -9 -9
8 8 8 5 -12 -24 -29 -27 -23 -18 -15 -14 -12 -11 -10 -11 -11 -11 -10 -9 -6 -5 -4 -5 -5 -6 -7 -9 -13 -11 -11 -12 -12 -12 -11 -8 -7 -8 -9 -9 -10 -9 -9 -9 -9
7 8 8 -2 -9 -25 -26 -16 -9 -2 -8 -8 -9 -9 -10 -11 -10 -9 -9 -6 -5 -5 -5 -4 -6 -8 -9 -8 -8 -7 -7 -8 -10 -9 -5 -4 -5 -6 -8 -9 -9 -9 -8 -8 -9
7 7 7 3 -14 -16 -18 -9 -10 -10 -6 -10 -12 -10 -11 -11 -10 -9 -8 -7 -5 -6 -4 -4 -6 -6 -6 -6 -5 -6 -6 -6 -8 -7 -4 -4 -3 -6 -9 -11 -10 -8 -6 -7 -9
7 7 5 3 -5 -12 -13 -11 -20 -17 -14 -10 -8 -10 -8 -10 -10 -9 -7 -6 -6 -4 -4 -4 -6 -5 -5 -6 -4 -5 -5 -5 -4 -4 -4 -3 -5 -12 -9 -9 -2 -0 1 1 1
7 6 5 2 -5 -7 -5 -12 -15 -22 -7 -8 -8 -8 -7 -8 -10 -8 -6 -6 -5 -4 -5 -3 -5 -4 -4 -4 -4 -3 -6 -4 -3 -0 1 -2 1 -5 -7 0 1 -1 1 1 2
5 5 5 3 -7 -6 -6 -10 -14 -19 -6 -9 -7 -7 -8 -10 -9 -7 -5 -4 -5 -6 -3 -3 -4 -2 1 -2 -3 -3 -3 -2 -1 0 1 -3 -1 -7 1 3 1 -1 -0 1 1
4 5 3 -6 -5 -4 -9 -10 -17 -2 -7 -8 -9 -8 -9 -9 -9 -7 -6 -4 -4 -5 -4 -5 -6 -5 -4 -4 -4 -3 -1 -1 -1 0 3 -3 -4 -1 3 4 1 0 -1 -1 0
5 5 1 -6 -2 -3 -6 -10 -4 -7 -10 -10 -10 -9 -9 -8 -7 -6 -6 -6 -6 -6 -8 -9 -5 -4 -3 -2 -3 -1 1 -0 0 1 -2 -6 -3 3 -0 -0 2 1 -0 -1 -1
5 2 -3 -3 -2 -3 -4 -2 -7 -11 -9 -13 -9 -9 -8 -7 -7 -6 -4 -4 -5 -7 -8 -9 -4 -4 -3 -3 1 1 1 2 4 0 1 -3 -2 4 -3 -4 -1 -1 -1 -1 -2
3 -4 -5 -4 -2 -0 -3 -2 -7 -10 -11 -9 -8 -7 -7 -7 -4 -5 -3 -5 -5 -8 -7 -7 -7 -9 -9 -3 0 5 3 2 4 1 3 -3 0 1 -3 -3 -2 -1 -2 -2 -3
-1 -2 -2 -1 -1 -0 0 -6 -9 -11 -11 -10 -8 -10 -6 -7 -6 4 -4 -4 -4 -6 -7 -5 -3 -7 -7 -1 -0 0 -1 2 4 6 3 -2 4 2 1 -0 -1 -1 -2 -2 -3
-2 -2 -1 0 -1 -0 1 -8 -9 -10 -10 -10 -7 -8 -9 -7 -7 -3 -3 -3 -5 -7 -6 -5 -3 -5 -5 -2 -2 -2 1 1 1 2 4 4 4 2 2 1 -0 -1 -2 -3 -4
-0 0 -1 0 0 -1 -3 -8 -11 -9 -9 -8 -8 -7 -7 -6 -6 -7 -3 -5 -5 -7 -5 -3 -2 -1 -5 -6 -4 -2 -0 1 4 4 3 4 5 1 1 0 -1 -2 -3 -3 -4
-0 -1 -0 1 1 -2 -3 -7 -10 -9 -10 -8 -6 -7 -7 -6 -5 -6 -5 -5 -5 -6 -3 -3 -1 1 -2 -0 -2 -1 -2 -0 2 4 6 6 5 1 0 -1 -2 -2 -3 -4 -4
-2 1 -0 0 0 -4 -4 -7 -5 -6 -5 -5 -6 -7 -7 -6 -7 -5 -6 -6 -5 -5 -4 -2 -2 1 0 1 1 2 -1 -0 1 5 5 3 2 1 0 -1 -2 -3 -3 -4 -5
-1 -1 -3 1 0 -1 -6 -7 -6 -6 -6 -7 -7 -8 -8 -6 -7 -7 -8 -6 -5 -2 -3 -4 -1 -2 -2 -3 1 3 -0 0 2 2 3 2 1 1 -0 -1 -2 -3 -4 -4 -5
-4 -2 -2 -3 -2 -3 -6 -7 -7 -7 -7 -6 -7 -8 -8 -8 -10 -6 -7 -5 -4 -5 -4 -3 -0 -1 -0 -1 2 2 -1 -3 -1 1 0 2 1 1 -1 -3 -5 -5 -4 -5 -5
-3 -4 -4 -3 -3 -5 -6 -6 -7 -6 -6 -9 -8 -7 -7 -7 -7 -7 -6 -6 -5 -4 -1 -1 -0 0 -1 -2 4 4 2 1 1 -0 0 -0 0 -1 -3 -4 -5 -5 -5 -6 -6